AFR15X KMCO-LFPG

Flight info

Callsign AFR15X
Flight time 8h 49m
Altitude 32000
Route JEEMY4 PAINN DCT SHRKS/N0496F330 DCT BERTT DCT GURGE DCT RAYVO Q87 NOWAE DCT FAK DCT BOOYA Q34 RBV Q22 LLUND DCT BIZEX Q133 CAM DCT BEEHS DCT JIGZY DCT TAFFY N693A NEEKO/M084F350 DCT 5350N DCT 5440N DCT 5430N DCT 5420N DCT DOGAL/N0483F350 DCT BEXET/N0482F370 DCT MORAG DCT NUCHU L18 MID/N0502F290 Y803 SFD UM605 BIBAX
Aircraft B77W/H-SDE1E2E3FGHIJ2J3J4J5M1RWXY/LB1D1

Departure

Time 2026-04-25 13:24
Airport Orlando International Airport (KMCO)

Arrival

Time 2026-04-25 22:14
Airport Charles de Gaulle International Airport (LFPG)
Time Latitude Longitude Altitude Speed Heading
2026-04-25 11:34 28.42550 -81.30120 107 ft 0 kts 55°
2026-04-25 12:38 28.42548 -81.30122 108 ft 3 kts 55°
2026-04-25 12:38 28.42532 -81.30145 105 ft 4 kts 44°
2026-04-25 12:38 28.42511 -81.30165 106 ft 4 kts 38°
2026-04-25 12:38 28.42491 -81.30184 106 ft 4 kts 60°
2026-04-25 12:39 28.42488 -81.30199 106 ft 1 kts 120°
2026-04-25 12:39 28.42489 -81.30203 107 ft 0 kts 120°
2026-04-25 12:43 28.42489 -81.30202 107 ft 1 kts 120°
2026-04-25 12:43 28.42460 -81.30151 108 ft 3 kts 135°
2026-04-25 12:44 28.42449 -81.30143 108 ft 0 kts 152°
2026-04-25 12:44 28.42443 -81.30141 108 ft 0 kts 161°
2026-04-25 12:45 28.42427 -81.30137 108 ft 6 kts 168°
2026-04-25 12:45 28.42309 -81.30132 108 ft 5 kts 179°
2026-04-25 12:46 28.42285 -81.30162 107 ft 6 kts 252°
2026-04-25 12:46 28.42277 -81.30215 107 ft 7 kts 266°
2026-04-25 12:46 28.42276 -81.30273 107 ft 7 kts 268°
2026-04-25 12:46 28.42275 -81.30332 106 ft 7 kts 268°
2026-04-25 12:47 28.42273 -81.30390 106 ft 7 kts 266°
2026-04-25 12:47 28.42268 -81.30463 108 ft 10 kts 266°
2026-04-25 12:47 28.42263 -81.30542 109 ft 10 kts 265°
2026-04-25 12:47 28.42257 -81.30622 109 ft 10 kts 265°
2026-04-25 12:48 28.42252 -81.30702 109 ft 10 kts 265°
2026-04-25 12:48 28.42246 -81.30782 109 ft 10 kts 265°
2026-04-25 12:48 28.42240 -81.30869 107 ft 12 kts 266°
2026-04-25 12:48 28.42234 -81.30961 107 ft 12 kts 267°
2026-04-25 12:49 28.42238 -81.31055 106 ft 12 kts 277°
2026-04-25 12:49 28.42252 -81.31151 105 ft 12 kts 280°
2026-04-25 12:49 28.42266 -81.31248 105 ft 12 kts 277°
2026-04-25 12:49 28.42269 -81.31344 108 ft 12 kts 268°
2026-04-25 12:50 28.42266 -81.31442 106 ft 12 kts 268°
2026-04-25 12:50 28.42265 -81.31540 107 ft 12 kts 270°
2026-04-25 12:50 28.42266 -81.31630 107 ft 8 kts 269°
2026-04-25 12:50 28.42265 -81.31683 108 ft 4 kts 269°
2026-04-25 12:51 28.42265 -81.31713 109 ft 4 kts 269°
2026-04-25 12:51 28.42265 -81.31718 109 ft 0 kts 269°
2026-04-25 12:51 28.42265 -81.31720 109 ft 1 kts 269°
2026-04-25 12:52 28.42265 -81.31728 109 ft 1 kts 269°
2026-04-25 12:52 28.42265 -81.31735 109 ft 1 kts 269°
2026-04-25 12:52 28.42265 -81.31738 109 ft 0 kts 269°
2026-04-25 12:53 28.42265 -81.31739 109 ft 1 kts 269°
2026-04-25 12:53 28.42265 -81.31776 111 ft 7 kts 269°
2026-04-25 12:53 28.42265 -81.31830 112 ft 7 kts 269°
2026-04-25 12:54 28.42264 -81.31884 113 ft 7 kts 269°
2026-04-25 12:54 28.42264 -81.31938 114 ft 7 kts 269°
2026-04-25 12:54 28.42287 -81.31982 112 ft 7 kts 335°
2026-04-25 12:54 28.42339 -81.31986 112 ft 9 kts 359°
2026-04-25 12:55 28.42401 -81.31987 112 ft 9 kts 359°
2026-04-25 12:55 28.42442 -81.31988 112 ft 9 kts 359°
2026-04-25 12:55 28.42559 -81.31989 113 ft 15 kts 359°
2026-04-25 12:55 28.42663 -81.31991 111 ft 15 kts 359°
2026-04-25 12:56 28.42765 -81.31992 109 ft 15 kts 359°
2026-04-25 12:56 28.42870 -81.31993 108 ft 15 kts 359°
2026-04-25 12:56 28.42976 -81.31993 107 ft 15 kts 360°
2026-04-25 12:56 28.43082 -81.31993 106 ft 15 kts 360°
2026-04-25 12:57 28.43187 -81.31994 107 ft 15 kts 358°
2026-04-25 12:57 28.43293 -81.31997 106 ft 15 kts 359°
2026-04-25 12:57 28.43399 -81.31998 106 ft 15 kts 360°
2026-04-25 12:57 28.43504 -81.31998 109 ft 15 kts 360°
2026-04-25 12:58 28.43610 -81.31999 109 ft 15 kts 360°
2026-04-25 12:58 28.43712 -81.32000 110 ft 13 kts 359°
2026-04-25 12:58 28.43790 -81.32001 110 ft 7 kts 359°
2026-04-25 12:58 28.43840 -81.32002 112 ft 7 kts 359°
2026-04-25 12:59 28.43863 -81.32003 113 ft 0 kts 359°
2026-04-25 12:59 28.43864 -81.32003 113 ft 1 kts 359°
2026-04-25 13:00 28.43880 -81.32003 112 ft 5 kts 359°
2026-04-25 13:00 28.43904 -81.32004 111 ft 5 kts 359°
2026-04-25 13:00 28.43958 -81.31991 112 ft 5 kts 53°
2026-04-25 13:00 28.43964 -81.31950 112 ft 5 kts 81°
2026-04-25 13:01 28.43972 -81.31905 111 ft 7 kts 71°
2026-04-25 13:01 28.44019 -81.31888 111 ft 8 kts 349°
2026-04-25 13:01 28.44075 -81.31898 112 ft 8 kts 353°
2026-04-25 13:01 28.44134 -81.31901 111 ft 9 kts 359°
2026-04-25 13:02 28.44196 -81.31902 109 ft 9 kts 359°
2026-04-25 13:02 28.44259 -81.31902 111 ft 9 kts
2026-04-25 13:02 28.44321 -81.31902 110 ft 9 kts
2026-04-25 13:02 28.44383 -81.31902 107 ft 9 kts 360°
2026-04-25 13:03 28.44445 -81.31903 110 ft 9 kts 359°
2026-04-25 13:03 28.44510 -81.31904 108 ft 10 kts 359°
2026-04-25 13:03 28.44579 -81.31905 106 ft 7 kts 359°
2026-04-25 13:03 28.44605 -81.31906 106 ft 4 kts 359°
2026-04-25 13:04 28.44615 -81.31906 106 ft 0 kts 359°
2026-04-25 13:10 28.44620 -81.31906 107 ft 3 kts 359°
2026-04-25 13:10 28.44652 -81.31907 108 ft 5 kts 359°
2026-04-25 13:11 28.44686 -81.31907 106 ft 5 kts 359°
2026-04-25 13:11 28.44720 -81.31908 106 ft 5 kts 359°
2026-04-25 13:11 28.44754 -81.31908 107 ft 5 kts 359°
2026-04-25 13:11 28.44784 -81.31908 107 ft 4 kts 359°
2026-04-25 13:12 28.44812 -81.31915 108 ft 4 kts 328°
2026-04-25 13:12 28.44815 -81.31919 108 ft 2 kts 314°
2026-04-25 13:12 28.44819 -81.31933 108 ft 0 kts 282°
2026-04-25 13:14 28.44823 -81.31955 107 ft 6 kts 282°
2026-04-25 13:14 28.44826 -81.32004 107 ft 6 kts 269°
2026-04-25 13:14 28.44826 -81.32025 107 ft 2 kts 269°
2026-04-25 13:15 28.44825 -81.32049 108 ft 4 kts 269°
2026-04-25 13:15 28.44825 -81.32080 107 ft 4 kts 268°
2026-04-25 13:15 28.44824 -81.32091 107 ft 0 kts 268°
2026-04-25 13:15 28.44825 -81.32091 107 ft 0 kts 268°
2026-04-25 13:16 28.44824 -81.32091 107 ft 0 kts 268°
2026-04-25 13:20 28.44824 -81.32094 107 ft 1 kts 268°
2026-04-25 13:21 28.44824 -81.32132 107 ft 10 kts 268°
2026-04-25 13:21 28.44822 -81.32189 108 ft 4 kts 268°
2026-04-25 13:21 28.44813 -81.32217 107 ft 4 kts 217°
2026-04-25 13:21 28.44784 -81.32226 106 ft 4 kts 189°
2026-04-25 13:22 28.44773 -81.32227 106 ft 0 kts 183°
2026-04-25 13:23 28.44692 -81.32228 108 ft 34 kts 180°
2026-04-25 13:23 28.44205 -81.32223 114 ft 105 kts 179°
2026-04-25 13:23 28.43256 -81.32214 107 ft 166 kts 180°
2026-04-25 13:24 28.41954 -81.32221 218 ft 198 kts 180°
2026-04-25 13:24 28.40577 -81.32199 780 ft 199 kts 180°
2026-04-25 13:24 28.39207 -81.32306 1394 ft 199 kts 191°
2026-04-25 13:24 28.37941 -81.32921 1775 ft 203 kts 213°
2026-04-25 13:25 28.36693 -81.33820 1925 ft 222 kts 212°
2026-04-25 13:25 28.35313 -81.34785 2133 ft 242 kts 212°
2026-04-25 13:25 28.33955 -81.35973 2494 ft 252 kts 224°
2026-04-25 13:25 28.32765 -81.37438 2919 ft 260 kts 234°
2026-04-25 13:26 28.32055 -81.39341 3430 ft 266 kts 259°
2026-04-25 13:26 28.31793 -81.41425 4055 ft 268 kts 263°
2026-04-25 13:26 28.31564 -81.43531 4735 ft 270 kts 263°
2026-04-25 13:26 28.31332 -81.45653 5377 ft 272 kts 263°
2026-04-25 13:27 28.31098 -81.47790 5992 ft 275 kts 263°
2026-04-25 13:27 28.30932 -81.49956 6545 ft 276 kts 275°
2026-04-25 13:27 28.31468 -81.52034 6953 ft 276 kts 302°
2026-04-25 13:27 28.32719 -81.53705 6991 ft 280 kts 319°
2026-04-25 13:28 28.34224 -81.55099 7329 ft 279 kts 322°
2026-04-25 13:28 28.35253 -81.55968 7741 ft 277 kts 327°
2026-04-25 13:28 28.37659 -81.56903 8460 ft 280 kts 351°
2026-04-25 13:28 28.39601 -81.57166 9066 ft 282 kts 353°
2026-04-25 13:29 28.41557 -81.57392 9682 ft 283 kts 353°
2026-04-25 13:29 28.43533 -81.57606 10228 ft 287 kts 353°
2026-04-25 13:29 28.45586 -81.57821 10429 ft 305 kts 353°
2026-04-25 13:30 28.50055 -81.58194 10702 ft 342 kts
2026-04-25 13:30 28.52411 -81.57469 10867 ft 362 kts 20°
2026-04-25 13:30 28.54749 -81.56277 11323 ft 373 kts 23°
2026-04-25 13:31 28.59590 -81.53928 12727 ft 381 kts 19°
2026-04-25 13:31 28.62089 -81.52900 13573 ft 383 kts 17°
2026-04-25 13:31 28.64625 -81.51943 14273 ft 386 kts 15°
2026-04-25 13:31 28.67208 -81.51018 14902 ft 391 kts 15°
2026-04-25 13:32 28.69833 -81.50102 15533 ft 397 kts 14°
2026-04-25 13:32 28.72495 -81.49182 16202 ft 401 kts 14°
2026-04-25 13:32 28.75155 -81.48266 16832 ft 406 kts 14°
2026-04-25 13:32 28.77875 -81.47327 17459 ft 411 kts 14°
2026-04-25 13:33 28.80632 -81.46373 18068 ft 416 kts 14°
2026-04-25 13:33 28.83422 -81.45405 18644 ft 421 kts 14°
2026-04-25 13:33 28.86244 -81.44424 19247 ft 424 kts 14°
2026-04-25 13:33 28.88113 -81.43775 19662 ft 425 kts 14°
2026-04-25 13:34 28.91914 -81.42477 20504 ft 427 kts 12°
2026-04-25 13:34 28.94840 -81.41850 21076 ft 428 kts
2026-04-25 13:34 28.97816 -81.41630 21656 ft 429 kts 358°
2026-04-25 13:34 29.00757 -81.41800 22202 ft 430 kts 352°
2026-04-25 13:35 29.03745 -81.42180 22733 ft 433 kts 352°
2026-04-25 13:35 29.06762 -81.42555 23265 ft 437 kts 352°
2026-04-25 13:35 29.09798 -81.42906 23774 ft 440 kts 353°
2026-04-25 13:35 29.12857 -81.43223 24212 ft 443 kts 353°
2026-04-25 13:36 29.15938 -81.43514 24660 ft 446 kts 354°
2026-04-25 13:36 29.19046 -81.43798 25112 ft 448 kts 354°
2026-04-25 13:36 29.22163 -81.44084 25538 ft 451 kts 354°
2026-04-25 13:36 29.25305 -81.44376 25967 ft 454 kts 354°
2026-04-25 13:37 29.28466 -81.44673 26394 ft 457 kts 354°
2026-04-25 13:37 29.31602 -81.44970 26785 ft 459 kts 354°
2026-04-25 13:37 29.34796 -81.45274 27187 ft 462 kts 354°
2026-04-25 13:37 29.38006 -81.45580 27583 ft 464 kts 354°
2026-04-25 13:38 29.41237 -81.45888 27965 ft 467 kts 355°
2026-04-25 13:38 29.44488 -81.46199 28334 ft 469 kts 355°
2026-04-25 13:38 29.47752 -81.46511 28688 ft 472 kts 355°
2026-04-25 13:38 29.51033 -81.46824 29023 ft 474 kts 355°
2026-04-25 13:39 29.54332 -81.47139 29350 ft 476 kts 355°
2026-04-25 13:39 29.57601 -81.47452 29676 ft 478 kts 355°
2026-04-25 13:39 29.60931 -81.47764 30009 ft 479 kts 355°
2026-04-25 13:39 29.64254 -81.48065 30358 ft 478 kts 355°
2026-04-25 13:40 29.67570 -81.48362 30717 ft 477 kts 355°
2026-04-25 13:40 29.70898 -81.48660 30912 ft 480 kts 355°
2026-04-25 13:40 29.74205 -81.48959 30947 ft 482 kts 355°
2026-04-25 13:41 29.80873 -81.49565 30970 ft 477 kts 355°
2026-04-25 13:41 29.87479 -81.50232 30981 ft 476 kts 352°
2026-04-25 13:42 29.93923 -81.51943 30982 ft 476 kts 343°
2026-04-25 13:42 30.00237 -81.54253 30982 ft 476 kts 343°
2026-04-25 13:43 30.06531 -81.56545 30978 ft 477 kts 343°
2026-04-25 13:43 30.12879 -81.58825 30981 ft 478 kts 343°
2026-04-25 13:44 30.19250 -81.61104 30981 ft 478 kts 343°
2026-04-25 13:44 30.25579 -81.63371 30984 ft 479 kts 343°
2026-04-25 13:45 30.31943 -81.65656 30987 ft 478 kts 343°
2026-04-25 13:45 30.38302 -81.67942 30966 ft 479 kts 343°
2026-04-25 13:46 30.44672 -81.70236 30966 ft 479 kts 343°
2026-04-25 13:46 30.51045 -81.72534 30963 ft 480 kts 343°
2026-04-25 13:47 30.57390 -81.74812 30967 ft 480 kts 345°
2026-04-25 13:47 30.63972 -81.76017 30970 ft 479 kts 357°
2026-04-25 13:48 30.70630 -81.75699 30972 ft 478 kts
2026-04-25 13:48 30.77247 -81.74801 30964 ft 479 kts
2026-04-25 13:49 30.83851 -81.73922 31046 ft 482 kts
2026-04-25 13:49 30.87189 -81.73497 31341 ft 482 kts
2026-04-25 13:49 30.90517 -81.73079 31719 ft 480 kts
2026-04-25 13:49 30.93843 -81.72665 31908 ft 481 kts
2026-04-25 13:50 30.97183 -81.72249 31932 ft 482 kts
2026-04-25 13:50 31.03822 -81.71418 32009 ft 479 kts
2026-04-25 13:50 31.07141 -81.71001 32199 ft 480 kts
2026-04-25 13:51 31.10459 -81.70585 32545 ft 478 kts
2026-04-25 13:51 31.13760 -81.70170 32888 ft 476 kts
2026-04-25 13:51 31.17048 -81.69583 32918 ft 478 kts 11°
2026-04-25 13:52 31.23383 -81.67476 32954 ft 475 kts 17°
2026-04-25 13:52 31.29687 -81.65115 32968 ft 475 kts 16°
2026-04-25 13:53 31.35981 -81.62781 32962 ft 474 kts 16°
2026-04-25 13:53 31.42277 -81.60475 32960 ft 474 kts 16°
2026-04-25 13:54 31.48535 -81.58187 32964 ft 474 kts 16°
2026-04-25 13:54 31.54827 -81.55882 32947 ft 474 kts 16°
2026-04-25 13:55 31.61127 -81.53571 32952 ft 474 kts 16°
2026-04-25 13:55 31.67437 -81.51252 32952 ft 475 kts 16°
2026-04-25 13:56 31.73714 -81.48943 32944 ft 475 kts 16°
2026-04-25 13:56 31.80034 -81.46613 32946 ft 476 kts 16°
2026-04-25 13:57 31.86354 -81.44281 32945 ft 476 kts 16°
2026-04-25 13:57 31.92688 -81.41940 32945 ft 477 kts 16°
2026-04-25 13:58 31.99026 -81.39594 32943 ft 477 kts 16°
2026-04-25 13:58 32.05366 -81.37244 32957 ft 477 kts 16°
2026-04-25 13:59 32.11665 -81.34906 32952 ft 478 kts 16°
2026-04-25 13:59 32.18012 -81.32547 32952 ft 478 kts 16°
2026-04-25 14:00 32.24372 -81.30179 32945 ft 478 kts 16°
2026-04-25 14:00 32.30712 -81.27814 32957 ft 477 kts 17°
2026-04-25 14:01 32.37003 -81.25466 32930 ft 477 kts 17°
2026-04-25 14:01 32.43333 -81.23094 32924 ft 476 kts 18°
2026-04-25 14:02 32.49350 -81.19795 32934 ft 477 kts 29°
2026-04-25 14:02 32.54750 -81.15214 32931 ft 478 kts 38°
2026-04-25 14:03 32.59842 -81.10200 32924 ft 479 kts 38°
2026-04-25 14:03 32.64980 -81.05129 32927 ft 481 kts 38°
2026-04-25 14:04 32.70160 -81.00068 32931 ft 482 kts 38°
2026-04-25 14:04 32.75366 -80.94991 32928 ft 484 kts 38°
2026-04-25 14:05 32.80544 -80.89935 32951 ft 484 kts 38°
2026-04-25 14:05 32.85739 -80.84829 32936 ft 483 kts 38°
2026-04-25 14:06 32.90939 -80.79751 32948 ft 482 kts 38°
2026-04-25 14:06 32.96119 -80.74674 32955 ft 481 kts 38°
2026-04-25 14:07 33.01251 -80.69630 32947 ft 481 kts 38°
2026-04-25 14:07 33.06417 -80.64544 32926 ft 481 kts 38°
2026-04-25 14:08 33.11582 -80.59451 32926 ft 481 kts 38°
2026-04-25 14:08 33.16714 -80.54382 32923 ft 481 kts 38°
2026-04-25 14:09 33.21887 -80.49266 32923 ft 481 kts 39°
2026-04-25 14:09 33.27027 -80.44175 32919 ft 481 kts 39°
2026-04-25 14:10 33.32188 -80.39053 32921 ft 481 kts 39°
2026-04-25 14:10 33.37342 -80.33931 32927 ft 481 kts 39°
2026-04-25 14:11 33.42465 -80.28831 32926 ft 481 kts 39°
2026-04-25 14:11 33.47608 -80.23704 32933 ft 481 kts 39°
2026-04-25 14:12 33.52759 -80.18559 32932 ft 481 kts 39°
2026-04-25 14:12 33.57907 -80.13409 32944 ft 481 kts 39°
2026-04-25 14:13 33.63045 -80.08318 32932 ft 481 kts 36°
2026-04-25 14:13 33.67714 -80.04683 32926 ft 480 kts 27°
2026-04-25 14:14 33.74684 -80.00504 32937 ft 480 kts 26°
2026-04-25 14:14 33.79607 -79.97566 32911 ft 481 kts 26°
2026-04-25 14:15 33.85595 -79.93940 32915 ft 481 kts 26°
2026-04-25 14:15 33.91551 -79.90304 32921 ft 482 kts 26°
2026-04-25 14:16 33.97545 -79.86636 32925 ft 482 kts 26°
2026-04-25 14:16 34.03529 -79.82973 32932 ft 482 kts 26°
2026-04-25 14:17 34.09511 -79.79302 32941 ft 482 kts 26°
2026-04-25 14:17 34.15489 -79.75625 32931 ft 482 kts 26°
2026-04-25 14:18 34.21438 -79.71972 32935 ft 482 kts 26°
2026-04-25 14:18 34.27418 -79.68275 32919 ft 483 kts 26°
2026-04-25 14:19 34.33406 -79.64560 32921 ft 483 kts 26°
2026-04-25 14:19 34.39397 -79.60855 32915 ft 483 kts 26°
2026-04-25 14:20 34.45384 -79.57143 32903 ft 483 kts 26°
2026-04-25 14:20 34.51375 -79.53418 32916 ft 483 kts 26°
2026-04-25 14:21 34.57349 -79.49661 32919 ft 484 kts 27°
2026-04-25 14:21 34.63192 -79.45688 32924 ft 484 kts 28°
2026-04-25 14:22 34.69077 -79.41686 32937 ft 484 kts 28°
2026-04-25 14:22 34.74981 -79.37703 32937 ft 485 kts 28°
2026-04-25 14:23 34.80878 -79.33715 32941 ft 485 kts 28°
2026-04-25 14:23 34.86729 -79.29730 32926 ft 485 kts 28°
2026-04-25 14:24 34.92640 -79.25732 32922 ft 486 kts 28°
2026-04-25 14:24 34.98545 -79.21717 32915 ft 486 kts 28°
2026-04-25 14:25 35.04452 -79.17679 32903 ft 486 kts 28°
2026-04-25 14:25 35.10327 -79.13670 32903 ft 487 kts 28°
2026-04-25 14:26 35.16250 -79.09620 32895 ft 488 kts 28°
2026-04-25 14:26 35.22180 -79.05555 32906 ft 489 kts 28°
2026-04-25 14:27 35.28095 -79.01451 32886 ft 488 kts 28°
2026-04-25 14:27 35.33949 -78.97452 32910 ft 489 kts 28°
2026-04-25 14:28 35.39903 -78.93377 32904 ft 490 kts 28°
2026-04-25 14:28 35.45847 -78.89268 32899 ft 490 kts 28°
2026-04-25 14:29 35.51793 -78.85151 32901 ft 491 kts 28°
2026-04-25 14:29 35.57706 -78.81050 32901 ft 491 kts 28°
2026-04-25 14:30 35.63658 -78.76920 32895 ft 491 kts 28°
2026-04-25 14:30 35.72584 -78.70732 32893 ft 490 kts 28°
2026-04-25 14:31 35.78528 -78.66585 32892 ft 490 kts 28°
2026-04-25 14:31 35.84438 -78.62481 32888 ft 491 kts 27°
2026-04-25 14:32 35.90409 -78.58347 32906 ft 492 kts 28°
2026-04-25 14:32 35.96367 -78.54174 32912 ft 492 kts 27°
2026-04-25 14:33 36.02326 -78.49991 32913 ft 493 kts 27°
2026-04-25 14:33 36.08262 -78.45825 32914 ft 494 kts 27°
2026-04-25 14:34 36.14283 -78.41596 32913 ft 495 kts 27°
2026-04-25 14:34 36.20225 -78.37414 32914 ft 495 kts 27°
2026-04-25 14:35 36.26220 -78.33188 32895 ft 496 kts 27°
2026-04-25 14:35 36.32212 -78.28955 32889 ft 496 kts 27°
2026-04-25 14:36 36.38306 -78.24993 32888 ft 493 kts 20°
2026-04-25 14:36 36.44791 -78.22336 32890 ft 489 kts 12°
2026-04-25 14:37 36.51345 -78.20046 32881 ft 489 kts 12°
2026-04-25 14:37 36.57844 -78.17743 32932 ft 490 kts 13°
2026-04-25 14:38 36.64406 -78.15372 32972 ft 490 kts 13°
2026-04-25 14:38 36.70935 -78.12993 32956 ft 490 kts 13°
2026-04-25 14:39 36.77487 -78.10601 32950 ft 491 kts 13°
2026-04-25 14:39 36.84042 -78.08207 32941 ft 491 kts 13°
2026-04-25 14:40 36.90608 -78.05806 32891 ft 492 kts 12°
2026-04-25 14:40 36.97143 -78.03411 32886 ft 492 kts 12°
2026-04-25 14:41 37.03715 -78.00999 32891 ft 492 kts 12°
2026-04-25 14:41 37.10238 -77.98600 32893 ft 493 kts 12°
2026-04-25 14:42 37.15684 -77.96593 32901 ft 493 kts 12°
2026-04-25 14:42 37.23394 -77.93749 32888 ft 493 kts 12°
2026-04-25 14:43 37.29951 -77.91323 32889 ft 493 kts 12°
2026-04-25 14:43 37.36533 -77.88884 32886 ft 492 kts 12°
2026-04-25 14:44 37.43077 -77.86455 32907 ft 492 kts 12°
2026-04-25 14:44 37.49649 -77.84012 32898 ft 492 kts 12°
2026-04-25 14:45 37.56128 -77.81233 32934 ft 495 kts 18°
2026-04-25 14:45 37.62498 -77.77857 32938 ft 497 kts 18°
2026-04-25 14:46 37.68882 -77.74438 32919 ft 498 kts 18°
2026-04-25 14:46 37.75267 -77.71053 32930 ft 498 kts 18°
2026-04-25 14:47 37.80580 -77.68252 32935 ft 498 kts 18°
2026-04-25 14:47 37.88027 -77.64323 32934 ft 498 kts 18°
2026-04-25 14:48 37.94432 -77.60934 32935 ft 498 kts 18°
2026-04-25 14:48 38.00832 -77.57539 32955 ft 497 kts 18°
2026-04-25 14:49 38.07174 -77.54169 32932 ft 497 kts 18°
2026-04-25 14:49 38.13559 -77.50770 32936 ft 496 kts 18°
2026-04-25 14:50 38.19937 -77.47368 32936 ft 496 kts 18°
2026-04-25 14:50 38.26258 -77.43990 32940 ft 496 kts 17°
2026-04-25 14:51 38.32625 -77.40581 32936 ft 496 kts 17°
2026-04-25 14:51 38.38872 -77.36785 32948 ft 504 kts 27°
2026-04-25 14:52 38.44379 -77.31131 32973 ft 514 kts 42°
2026-04-25 14:52 38.48342 -77.25418 32970 ft 516 kts 45°
2026-04-25 14:53 38.53795 -77.17324 32961 ft 516 kts 44°
2026-04-25 14:54 38.62841 -77.04178 32958 ft 516 kts 44°
2026-04-25 14:54 38.67552 -76.97345 32947 ft 516 kts 44°
2026-04-25 14:55 38.72304 -76.90426 32965 ft 516 kts 44°
2026-04-25 14:55 38.77017 -76.83549 32964 ft 516 kts 44°
2026-04-25 14:56 38.81750 -76.76625 32973 ft 515 kts 44°
2026-04-25 14:56 38.86471 -76.69700 32976 ft 515 kts 44°
2026-04-25 14:57 38.91182 -76.62774 33001 ft 514 kts 44°
2026-04-25 14:57 38.95879 -76.55853 32989 ft 514 kts 44°
2026-04-25 14:58 39.00545 -76.48965 32989 ft 514 kts 44°
2026-04-25 14:58 39.05239 -76.42017 32988 ft 514 kts 44°
2026-04-25 14:59 39.09923 -76.35070 33004 ft 513 kts 44°
2026-04-25 14:59 39.14596 -76.28123 33009 ft 513 kts 44°
2026-04-25 15:00 39.19268 -76.21162 33009 ft 513 kts 44°
2026-04-25 15:00 39.23906 -76.14238 33028 ft 513 kts 44°
2026-04-25 15:01 39.28580 -76.07255 33021 ft 513 kts 43°
2026-04-25 15:01 39.33228 -76.00316 33016 ft 512 kts 44°
2026-04-25 15:02 39.37839 -75.93413 33020 ft 512 kts 44°
2026-04-25 15:02 39.42480 -75.86448 33024 ft 512 kts 44°
2026-04-25 15:03 39.47112 -75.79479 33038 ft 512 kts 44°
2026-04-25 15:03 39.51772 -75.72452 33027 ft 512 kts 43°
2026-04-25 15:04 39.56400 -75.65458 33030 ft 512 kts 43°
2026-04-25 15:04 39.61013 -75.58470 33038 ft 512 kts 43°
2026-04-25 15:05 39.65642 -75.51426 33037 ft 513 kts 45°
2026-04-25 15:06 39.72014 -75.40251 33045 ft 516 kts 48°
2026-04-25 15:06 39.76200 -75.32673 33062 ft 516 kts 48°
2026-04-25 15:07 39.80417 -75.25092 33068 ft 516 kts 48°
2026-04-25 15:07 39.84634 -75.17527 33063 ft 516 kts 48°
2026-04-25 15:08 39.88826 -75.09988 33064 ft 516 kts 48°
2026-04-25 15:08 39.93030 -75.02402 33072 ft 516 kts 48°
2026-04-25 15:09 39.97163 -74.94927 33089 ft 515 kts 48°
2026-04-25 15:09 40.03166 -74.83238 33079 ft 516 kts 51°
2026-04-25 15:10 40.07081 -74.75432 33078 ft 515 kts 50°
2026-04-25 15:11 40.13012 -74.63733 33090 ft 515 kts 50°
2026-04-25 15:11 40.16970 -74.55911 33077 ft 515 kts 50°
2026-04-25 15:12 40.21341 -74.48667 33091 ft 504 kts 39°
2026-04-25 15:12 40.23843 -74.45469 33083 ft 499 kts 33°
2026-04-25 15:12 40.27396 -74.41666 33095 ft 496 kts 31°
2026-04-25 15:13 40.37291 -74.31257 33107 ft 499 kts 32°
2026-04-25 15:14 40.42667 -74.25496 33118 ft 498 kts 32°
2026-04-25 15:14 40.48007 -74.19750 33141 ft 498 kts 32°
2026-04-25 15:15 40.53374 -74.13972 33133 ft 498 kts 32°
2026-04-25 15:15 40.58744 -74.08182 33116 ft 497 kts 32°
2026-04-25 15:16 40.64065 -74.02441 33148 ft 498 kts 32°
2026-04-25 15:16 40.72045 -73.93803 33146 ft 497 kts 32°
2026-04-25 15:17 40.80024 -73.85138 33135 ft 495 kts 32°
2026-04-25 15:18 40.85461 -73.79729 33128 ft 486 kts 23°
2026-04-25 15:18 40.91418 -73.75737 33120 ft 473 kts 13°
2026-04-25 15:18 40.94501 -73.74253 33131 ft 471 kts 11°
2026-04-25 15:19 40.98647 -73.72329 33112 ft 471 kts 11°
2026-04-25 15:19 41.06873 -73.68463 33124 ft 471 kts 12°
2026-04-25 15:20 41.13011 -73.65519 33121 ft 472 kts 12°
2026-04-25 15:20 41.19181 -73.62547 33122 ft 471 kts 12°
2026-04-25 15:21 41.25342 -73.59591 33138 ft 469 kts 10°
2026-04-25 15:21 41.31598 -73.57585 33135 ft 455 kts 360°
2026-04-25 15:22 41.37831 -73.56743 33139 ft 452 kts 358°
2026-04-25 15:22 41.44080 -73.55951 33154 ft 452 kts 358°
2026-04-25 15:23 41.50364 -73.55125 33121 ft 452 kts 358°
2026-04-25 15:23 41.56631 -73.54278 33119 ft 452 kts 358°
2026-04-25 15:24 41.62856 -73.53429 33108 ft 453 kts 358°
2026-04-25 15:24 41.67050 -73.52856 33102 ft 453 kts 358°
2026-04-25 15:25 41.75410 -73.51712 33095 ft 454 kts 358°
2026-04-25 15:25 41.81702 -73.50850 33118 ft 454 kts 358°
2026-04-25 15:26 41.88008 -73.49985 33111 ft 455 kts 358°
2026-04-25 15:26 41.94268 -73.49124 33104 ft 455 kts 359°
2026-04-25 15:27 42.00561 -73.48255 33090 ft 454 kts 358°
2026-04-25 15:28 42.09994 -73.46950 33093 ft 453 kts 358°
2026-04-25 15:28 42.16266 -73.46083 33053 ft 453 kts 358°
2026-04-25 15:29 42.22492 -73.45220 33085 ft 452 kts 358°
2026-04-25 15:29 42.28753 -73.44349 33079 ft 453 kts 358°
2026-04-25 15:30 42.35035 -73.43473 33084 ft 453 kts 358°
2026-04-25 15:30 42.41309 -73.42598 33080 ft 453 kts 358°
2026-04-25 15:31 42.47603 -73.41717 33087 ft 455 kts 358°
2026-04-25 15:31 42.53867 -73.40840 33084 ft 455 kts 358°
2026-04-25 15:32 42.60184 -73.39951 33081 ft 456 kts 358°
2026-04-25 15:32 42.66492 -73.39062 33105 ft 456 kts 358°
2026-04-25 15:33 42.75949 -73.37729 33103 ft 455 kts 358°
2026-04-25 15:33 42.82261 -73.36835 33123 ft 455 kts 358°
2026-04-25 15:34 42.87513 -73.36091 33099 ft 456 kts 358°
2026-04-25 15:34 42.92765 -73.35345 33105 ft 456 kts 358°
2026-04-25 15:35 43.03277 -73.33925 33112 ft 456 kts 356°
2026-04-25 15:36 43.12802 -73.32980 33092 ft 456 kts 356°
2026-04-25 15:36 43.19137 -73.32346 33105 ft 457 kts 356°
2026-04-25 15:37 43.25489 -73.31690 33109 ft 457 kts 356°
2026-04-25 15:37 43.31797 -73.31028 33111 ft 457 kts 356°
2026-04-25 15:38 43.38156 -73.30361 33263 ft 459 kts 356°
2026-04-25 15:38 43.41332 -73.30026 33687 ft 456 kts 356°
2026-04-25 15:38 43.44466 -73.29691 34309 ft 448 kts 356°
2026-04-25 15:39 43.47559 -73.29360 34727 ft 444 kts 356°
2026-04-25 15:39 43.50639 -73.29036 34934 ft 445 kts 356°
2026-04-25 15:39 43.56846 -73.28389 35071 ft 447 kts 356°
2026-04-25 15:40 43.61970 -73.27848 35091 ft 443 kts 356°
2026-04-25 15:40 43.69096 -73.27091 35118 ft 439 kts 356°
2026-04-25 15:41 43.75182 -73.26447 35098 ft 439 kts 356°
2026-04-25 15:41 43.81242 -73.25804 35104 ft 439 kts 356°
2026-04-25 15:42 43.87357 -73.25153 35099 ft 441 kts 356°
2026-04-25 15:42 43.93496 -73.24498 35118 ft 444 kts 357°
2026-04-25 15:43 43.99668 -73.23516 35095 ft 457 kts 10°
2026-04-25 15:43 44.02581 -73.21682 35107 ft 475 kts 24°
2026-04-25 15:43 44.05229 -73.18804 35098 ft 493 kts 39°
2026-04-25 15:44 44.09323 -73.10959 35098 ft 506 kts 49°
2026-04-25 15:44 44.13210 -73.02778 35125 ft 503 kts 48°
2026-04-25 15:45 44.17035 -72.94848 35128 ft 493 kts 47°
2026-04-25 15:45 44.20255 -72.88297 35135 ft 491 kts 47°
2026-04-25 15:46 44.24790 -72.79124 35149 ft 493 kts 47°
2026-04-25 15:46 44.28674 -72.71239 35167 ft 495 kts 47°
2026-04-25 15:47 44.32551 -72.63329 35144 ft 496 kts 47°
2026-04-25 15:47 44.36456 -72.55333 35131 ft 497 kts 47°
2026-04-25 15:48 44.40331 -72.47374 35133 ft 496 kts 47°
2026-04-25 15:48 44.44195 -72.39415 35124 ft 493 kts 47°
2026-04-25 15:49 44.48042 -72.31468 35121 ft 489 kts 47°
2026-04-25 15:49 44.51828 -72.23635 35125 ft 486 kts 47°
2026-04-25 15:50 44.55618 -72.15773 35108 ft 485 kts 47°
2026-04-25 15:50 44.59365 -72.07979 35129 ft 484 kts 47°
2026-04-25 15:51 44.62494 -72.01454 35120 ft 484 kts 47°
2026-04-25 15:51 44.66858 -71.92329 35131 ft 485 kts 47°
2026-04-25 15:52 44.70601 -71.84477 35133 ft 486 kts 47°
2026-04-25 15:52 44.74362 -71.76564 35133 ft 487 kts 47°
2026-04-25 15:53 44.78111 -71.68656 35124 ft 487 kts 47°
2026-04-25 15:53 44.81868 -71.60706 35137 ft 486 kts 47°
2026-04-25 15:54 44.85583 -71.52824 35164 ft 485 kts 47°
2026-04-25 15:54 44.89317 -71.44884 35142 ft 486 kts 47°
2026-04-25 15:55 44.93043 -71.36936 35167 ft 485 kts 47°
2026-04-25 15:55 44.96763 -71.28980 35150 ft 485 kts 47°
2026-04-25 15:56 45.00473 -71.21022 35188 ft 485 kts 47°
2026-04-25 15:56 45.04180 -71.13048 35144 ft 485 kts 47°
2026-04-25 15:57 45.07883 -71.05062 35138 ft 485 kts 47°
2026-04-25 15:57 45.11714 -70.97406 35132 ft 474 kts 40°
2026-04-25 15:58 45.16164 -70.90581 35138 ft 469 kts 37°
2026-04-25 15:58 45.20645 -70.83850 35139 ft 470 kts 38°
2026-04-25 15:59 45.25085 -70.77109 35136 ft 471 kts 38°
2026-04-25 15:59 45.29551 -70.70263 35143 ft 472 kts 38°
2026-04-25 16:00 45.32531 -70.65672 35178 ft 473 kts 39°
2026-04-25 16:00 45.38487 -70.56477 35133 ft 475 kts 39°
2026-04-25 16:01 45.42933 -70.49591 35131 ft 476 kts 39°
2026-04-25 16:01 45.47417 -70.42631 35145 ft 476 kts 39°
2026-04-25 16:02 45.51899 -70.35658 35147 ft 477 kts 39°
2026-04-25 16:02 45.56392 -70.28651 35126 ft 478 kts 39°
2026-04-25 16:03 45.60885 -70.21625 35128 ft 479 kts 40°
2026-04-25 16:03 45.65347 -70.14556 35129 ft 479 kts 43°
2026-04-25 16:04 45.69763 -70.07571 35121 ft 475 kts 43°
2026-04-25 16:04 45.74176 -70.00564 35135 ft 475 kts 41°
2026-04-25 16:05 45.78636 -69.93655 35132 ft 479 kts 41°
2026-04-25 16:06 45.85393 -69.82999 35138 ft 482 kts 42°
2026-04-25 16:06 45.89857 -69.75890 35115 ft 482 kts 43°
2026-04-25 16:07 45.94339 -69.68732 35118 ft 480 kts 43°
2026-04-25 16:07 45.98796 -69.61606 35130 ft 478 kts 43°
2026-04-25 16:08 46.03234 -69.54494 35118 ft 476 kts 43°
2026-04-25 16:08 46.07633 -69.47426 35119 ft 475 kts 43°
2026-04-25 16:09 46.12042 -69.40324 35121 ft 474 kts 43°
2026-04-25 16:09 46.16442 -69.33220 35121 ft 474 kts 44°
2026-04-25 16:10 46.20813 -69.26143 35123 ft 475 kts 44°
2026-04-25 16:10 46.25213 -69.19000 35117 ft 475 kts 44°
2026-04-25 16:11 46.29605 -69.11850 35127 ft 475 kts 44°
2026-04-25 16:11 46.33998 -69.04682 35105 ft 476 kts 44°
2026-04-25 16:12 46.38317 -68.97614 35103 ft 475 kts 45°
2026-04-25 16:12 46.42696 -68.90430 35110 ft 475 kts 45°
2026-04-25 16:13 46.47077 -68.83225 35109 ft 475 kts 45°
2026-04-25 16:13 46.51430 -68.76044 35100 ft 475 kts 45°
2026-04-25 16:14 46.55794 -68.68829 35115 ft 474 kts 45°
2026-04-25 16:14 46.60113 -68.61667 35116 ft 474 kts 45°
2026-04-25 16:15 46.64467 -68.54438 35119 ft 473 kts 46°
2026-04-25 16:15 46.68803 -68.47206 35113 ft 473 kts 46°
2026-04-25 16:16 46.73089 -68.40037 35101 ft 472 kts 46°
2026-04-25 16:16 46.77409 -68.32799 35117 ft 472 kts 46°
2026-04-25 16:17 46.81717 -68.25562 35087 ft 472 kts 46°
2026-04-25 16:17 46.86000 -68.18349 35070 ft 472 kts 47°
2026-04-25 16:18 46.90303 -68.11081 35066 ft 472 kts 47°
2026-04-25 16:18 46.94571 -68.03853 35063 ft 472 kts 47°
2026-04-25 16:19 46.98810 -67.96645 35070 ft 470 kts 47°
2026-04-25 16:19 47.03072 -67.89430 35073 ft 470 kts 47°
2026-04-25 16:20 47.09457 -67.78500 35085 ft 470 kts 47°
2026-04-25 16:21 47.15834 -67.67551 35090 ft 469 kts 47°
2026-04-25 16:21 47.20040 -67.60313 35087 ft 468 kts 47°
2026-04-25 16:22 47.24259 -67.53033 35105 ft 467 kts 47°
2026-04-25 16:22 47.28470 -67.45747 35104 ft 466 kts 48°
2026-04-25 16:23 47.32667 -67.38464 35090 ft 466 kts 48°
2026-04-25 16:23 47.36851 -67.31187 35084 ft 465 kts 48°
2026-04-25 16:24 47.40925 -67.23834 35081 ft 464 kts 50°
2026-04-25 16:24 47.44254 -67.17586 35089 ft 464 kts 50°
2026-04-25 16:25 47.48894 -67.08841 35078 ft 464 kts 50°
2026-04-25 16:25 47.52249 -67.02539 35075 ft 465 kts 50°
2026-04-25 16:26 47.56213 -66.95095 35080 ft 466 kts 50°
2026-04-25 16:26 47.60200 -66.87597 35079 ft 466 kts 50°
2026-04-25 16:27 47.64231 -66.79992 35087 ft 467 kts 50°
2026-04-25 16:27 47.68238 -66.72411 35087 ft 469 kts 50°
2026-04-25 16:28 47.72265 -66.64772 35071 ft 470 kts 50°
2026-04-25 16:28 47.76267 -66.57157 35081 ft 470 kts 50°
2026-04-25 16:29 47.80291 -66.49477 35073 ft 470 kts 50°
2026-04-25 16:29 47.84305 -66.41796 35074 ft 469 kts 50°
2026-04-25 16:30 47.88287 -66.34155 35077 ft 469 kts 50°
2026-04-25 16:30 47.92292 -66.26448 35077 ft 469 kts 50°
2026-04-25 16:31 47.96284 -66.18743 35066 ft 469 kts 50°
2026-04-25 16:31 48.00238 -66.11092 35056 ft 468 kts 50°
2026-04-25 16:32 48.04213 -66.03376 35057 ft 467 kts 50°
2026-04-25 16:32 48.08137 -65.95739 35048 ft 467 kts 50°
2026-04-25 16:33 48.12069 -65.88065 35043 ft 466 kts 50°
2026-04-25 16:33 48.16018 -65.80336 35059 ft 467 kts 51°
2026-04-25 16:34 48.19941 -65.72637 35038 ft 467 kts 51°
2026-04-25 16:34 48.23874 -65.64896 35040 ft 467 kts 51°
2026-04-25 16:35 48.27814 -65.57090 35045 ft 468 kts 51°
2026-04-25 16:35 48.31767 -65.49295 35036 ft 468 kts 50°
2026-04-25 16:36 48.35692 -65.41522 35044 ft 469 kts 51°
2026-04-25 16:36 48.39628 -65.33675 35044 ft 469 kts 51°
2026-04-25 16:37 48.43543 -65.25845 35033 ft 469 kts 51°
2026-04-25 16:37 48.47455 -65.18006 35036 ft 469 kts 51°
2026-04-25 16:38 48.51380 -65.10121 35036 ft 469 kts 51°
2026-04-25 16:38 48.55276 -65.02271 35031 ft 469 kts 51°
2026-04-25 16:39 48.59148 -64.94447 35062 ft 468 kts 51°
2026-04-25 16:39 48.63010 -64.86623 35037 ft 465 kts 51°
2026-04-25 16:40 48.66869 -64.78780 35033 ft 462 kts 51°
2026-04-25 16:40 48.70699 -64.70973 35038 ft 460 kts 51°
2026-04-25 16:41 48.74499 -64.63207 35056 ft 459 kts 51°
2026-04-25 16:41 48.80190 -64.51535 35041 ft 457 kts 51°
2026-04-25 16:42 48.83951 -64.43791 35047 ft 457 kts 51°
2026-04-25 16:42 48.87709 -64.36032 35047 ft 458 kts 51°
2026-04-25 16:43 48.91484 -64.28215 35043 ft 460 kts 51°
2026-04-25 16:43 48.95270 -64.20354 35030 ft 461 kts 51°
2026-04-25 16:44 48.99056 -64.12469 35027 ft 461 kts 51°
2026-04-25 16:44 49.02832 -64.04578 35045 ft 462 kts 51°
2026-04-25 16:45 49.06588 -63.96710 35024 ft 464 kts 51°
2026-04-25 16:45 49.10365 -63.88774 35012 ft 464 kts 51°
2026-04-25 16:46 49.14157 -63.80781 34999 ft 465 kts 51°
2026-04-25 16:46 49.17305 -63.74128 34998 ft 465 kts 51°
2026-04-25 16:47 49.21706 -63.64797 34996 ft 464 kts 51°
2026-04-25 16:47 49.25477 -63.56778 34992 ft 463 kts 51°
2026-04-25 16:48 49.29236 -63.48760 34979 ft 462 kts 51°
2026-04-25 16:48 49.32975 -63.40761 34980 ft 461 kts 52°
2026-04-25 16:49 49.36711 -63.32744 34980 ft 460 kts 52°
2026-04-25 16:49 49.40398 -63.24807 34984 ft 459 kts 52°
2026-04-25 16:50 49.44096 -63.16824 34977 ft 457 kts 52°
2026-04-25 16:50 49.47776 -63.08857 34986 ft 456 kts 51°
2026-04-25 16:51 49.51451 -63.00878 34981 ft 456 kts 51°
2026-04-25 16:51 49.53840 -62.95677 34977 ft 456 kts 52°
2026-04-25 16:52 49.58731 -62.84999 34987 ft 458 kts 52°
2026-04-25 16:52 49.62409 -62.76940 34988 ft 460 kts 52°
2026-04-25 16:53 49.67932 -62.64792 34949 ft 463 kts 52°
2026-04-25 16:54 49.71632 -62.56623 34954 ft 463 kts 52°
2026-04-25 16:54 49.75309 -62.48479 34944 ft 463 kts 52°
2026-04-25 16:55 49.78988 -62.40305 34939 ft 462 kts 52°
2026-04-25 16:55 49.82650 -62.32142 34926 ft 461 kts 52°
2026-04-25 16:56 49.86304 -62.23976 34931 ft 460 kts 52°
2026-04-25 16:56 49.89927 -62.15852 34924 ft 459 kts 52°
2026-04-25 16:57 49.93561 -62.07678 34927 ft 459 kts 52°
2026-04-25 16:57 49.97147 -61.99589 34919 ft 458 kts 53°
2026-04-25 16:58 50.00738 -61.91462 34904 ft 458 kts 53°
2026-04-25 16:58 50.04350 -61.83264 34906 ft 458 kts 53°
2026-04-25 16:59 50.07932 -61.75108 34907 ft 459 kts 53°
2026-04-25 16:59 50.11535 -61.66878 34908 ft 459 kts 53°
2026-04-25 17:00 50.15134 -61.58633 34905 ft 460 kts 53°
2026-04-25 17:00 50.18732 -61.50363 34910 ft 460 kts 53°
2026-04-25 17:01 50.22303 -61.42129 34901 ft 460 kts 53°
2026-04-25 17:01 50.25895 -61.33821 34894 ft 460 kts 53°
2026-04-25 17:02 50.29458 -61.25554 34889 ft 460 kts 53°
2026-04-25 17:02 50.33034 -61.17232 34894 ft 459 kts 53°
2026-04-25 17:03 50.36574 -61.08915 34884 ft 459 kts 54°
2026-04-25 17:03 50.40106 -61.00660 34878 ft 459 kts 54°
2026-04-25 17:04 50.43636 -60.92405 34906 ft 459 kts 54°
2026-04-25 17:04 50.47184 -60.84046 34903 ft 459 kts 54°
2026-04-25 17:05 50.50704 -60.75719 34909 ft 459 kts 54°
2026-04-25 17:05 50.55989 -60.63166 34897 ft 458 kts 54°
2026-04-25 17:06 50.59483 -60.54838 34897 ft 458 kts 54°
2026-04-25 17:06 50.62983 -60.46469 34898 ft 458 kts 54°
2026-04-25 17:07 50.66485 -60.38069 34904 ft 457 kts 55°
2026-04-25 17:07 50.69944 -60.29746 34887 ft 455 kts 55°
2026-04-25 17:08 50.73405 -60.21389 34885 ft 453 kts 55°
2026-04-25 17:08 50.76850 -60.13047 34889 ft 452 kts 55°
2026-04-25 17:09 50.80259 -60.04763 34900 ft 451 kts 55°
2026-04-25 17:09 50.83638 -59.96528 34896 ft 450 kts 55°
2026-04-25 17:10 50.87026 -59.88243 34875 ft 449 kts 55°
2026-04-25 17:10 50.90428 -59.79898 34878 ft 449 kts 55°
2026-04-25 17:11 50.93812 -59.71572 34888 ft 449 kts 56°
2026-04-25 17:11 50.97174 -59.63269 34885 ft 449 kts 56°
2026-04-25 17:12 51.00550 -59.54909 34884 ft 450 kts 56°
2026-04-25 17:12 51.03905 -59.46573 34865 ft 450 kts 56°
2026-04-25 17:13 51.06141 -59.41003 34869 ft 450 kts 56°
2026-04-25 17:13 51.10624 -59.29798 34865 ft 450 kts 56°
2026-04-25 17:14 51.13413 -59.22802 34874 ft 449 kts 56°
2026-04-25 17:14 51.16762 -59.14378 34867 ft 449 kts 56°
2026-04-25 17:15 51.20094 -59.05965 34877 ft 448 kts 56°
2026-04-25 17:15 51.23389 -58.97622 34864 ft 449 kts 56°
2026-04-25 17:16 51.26718 -58.89166 34856 ft 449 kts 56°
2026-04-25 17:16 51.30040 -58.80701 34858 ft 450 kts 56°
2026-04-25 17:17 51.33361 -58.72210 34847 ft 451 kts 56°
2026-04-25 17:17 51.36677 -58.63700 34857 ft 450 kts 57°
2026-04-25 17:18 51.39970 -58.55224 34834 ft 450 kts 57°
2026-04-25 17:18 51.43270 -58.46701 34838 ft 449 kts 57°
2026-04-25 17:19 51.46557 -58.38184 34838 ft 449 kts 57°
2026-04-25 17:19 51.49834 -58.29664 34835 ft 449 kts 57°
2026-04-25 17:20 51.53111 -58.21117 34842 ft 448 kts 57°
2026-04-25 17:20 51.56374 -58.12576 34826 ft 448 kts 57°
2026-04-25 17:21 51.59614 -58.04068 34827 ft 448 kts 57°
2026-04-25 17:21 51.62831 -57.95592 34851 ft 448 kts 57°
2026-04-25 17:22 51.65533 -57.88451 34837 ft 450 kts 57°
2026-04-25 17:22 51.69322 -57.78406 34835 ft 451 kts 57°
2026-04-25 17:23 51.72580 -57.69736 34818 ft 452 kts 57°
2026-04-25 17:23 51.75834 -57.61047 34816 ft 452 kts 58°
2026-04-25 17:24 51.79057 -57.52411 34813 ft 451 kts 58°
2026-04-25 17:24 51.82295 -57.43704 34824 ft 451 kts 58°
2026-04-25 17:25 51.85518 -57.35009 34828 ft 450 kts 58°
2026-04-25 17:25 51.88716 -57.26349 34804 ft 450 kts 58°
2026-04-25 17:26 51.91923 -57.17640 34821 ft 450 kts 58°
2026-04-25 17:26 51.95127 -57.08907 34821 ft 450 kts 58°
2026-04-25 17:27 51.98325 -57.00160 34832 ft 451 kts 58°
2026-04-25 17:27 52.00946 -56.92969 34832 ft 451 kts 58°
2026-04-25 17:28 52.04663 -56.82735 34840 ft 452 kts 59°
2026-04-25 17:28 52.07848 -56.73933 34830 ft 454 kts 59°
2026-04-25 17:29 52.11049 -56.65053 34834 ft 456 kts 59°
2026-04-25 17:29 52.14259 -56.56120 34833 ft 457 kts 59°
2026-04-25 17:30 52.17471 -56.47149 34843 ft 458 kts 59°
2026-04-25 17:30 52.20654 -56.38226 34821 ft 458 kts 59°
2026-04-25 17:31 52.23854 -56.29224 34829 ft 457 kts 59°
2026-04-25 17:31 52.27025 -56.20272 34810 ft 457 kts 59°
2026-04-25 17:32 52.30205 -56.11263 34803 ft 457 kts 59°
2026-04-25 17:32 52.33370 -56.02261 34800 ft 456 kts 59°
2026-04-25 17:33 52.36478 -55.93397 34804 ft 455 kts 59°
2026-04-25 17:33 52.39337 -55.84163 34796 ft 455 kts 68°
2026-04-25 17:34 52.41226 -55.74269 34790 ft 455 kts 76°
2026-04-25 17:34 52.42502 -55.64181 34807 ft 455 kts 77°
2026-04-25 17:35 52.43756 -55.53987 34793 ft 455 kts 77°
2026-04-25 17:35 52.45023 -55.43774 34787 ft 456 kts 77°
2026-04-25 17:36 52.46285 -55.33644 34776 ft 456 kts 77°
2026-04-25 17:36 52.47552 -55.23438 34750 ft 456 kts 77°
2026-04-25 17:37 52.48805 -55.13271 34752 ft 456 kts 77°
2026-04-25 17:37 52.50054 -55.03056 34746 ft 456 kts 77°
2026-04-25 17:38 52.51074 -54.94660 34737 ft 456 kts 77°
2026-04-25 17:38 52.52516 -54.82685 34714 ft 457 kts 77°
2026-04-25 17:39 52.53732 -54.72510 34733 ft 457 kts 77°
2026-04-25 17:39 52.54949 -54.62236 34711 ft 457 kts 77°
2026-04-25 17:40 52.56156 -54.51972 34713 ft 457 kts 77°
2026-04-25 17:40 52.57348 -54.41761 34715 ft 457 kts 77°
2026-04-25 17:41 52.58538 -54.31480 34693 ft 457 kts 77°
2026-04-25 17:41 52.59720 -54.21184 34693 ft 457 kts 78°
2026-04-25 17:42 52.60888 -54.10929 34687 ft 458 kts 78°
2026-04-25 17:42 52.62058 -54.00574 34685 ft 459 kts 78°
2026-04-25 17:43 52.63201 -53.90368 34680 ft 460 kts 78°
2026-04-25 17:43 52.64355 -53.79984 34663 ft 461 kts 78°
2026-04-25 17:44 52.65502 -53.69570 34668 ft 461 kts 78°
2026-04-25 17:44 52.66632 -53.59228 34670 ft 461 kts 78°
2026-04-25 17:45 52.67387 -53.52264 34665 ft 461 kts 78°
2026-04-25 17:45 52.68877 -53.38411 34652 ft 461 kts 79°
2026-04-25 17:46 52.69988 -53.27980 34657 ft 461 kts 79°
2026-04-25 17:46 52.71083 -53.17598 34639 ft 462 kts 79°
2026-04-25 17:47 52.72176 -53.07148 34640 ft 462 kts 79°
2026-04-25 17:47 52.73253 -52.96769 34642 ft 462 kts 79°
2026-04-25 17:48 52.74857 -52.81116 34626 ft 463 kts 79°
2026-04-25 17:49 52.75919 -52.70639 34633 ft 463 kts 79°
2026-04-25 17:49 52.76971 -52.60156 34616 ft 463 kts 79°
2026-04-25 17:50 52.78010 -52.49715 34615 ft 463 kts 79°
2026-04-25 17:50 52.79046 -52.39208 34615 ft 463 kts 79°
2026-04-25 17:51 52.80071 -52.28704 34599 ft 463 kts 79°
2026-04-25 17:51 52.81087 -52.18198 34597 ft 462 kts 79°
2026-04-25 17:52 52.82093 -52.07693 34597 ft 462 kts 79°
2026-04-25 17:52 52.83073 -51.97363 34601 ft 461 kts 80°
2026-04-25 17:53 52.84057 -51.86888 34596 ft 461 kts 80°
2026-04-25 17:53 52.85033 -51.76405 34594 ft 461 kts 80°
2026-04-25 17:54 52.86000 -51.65896 34591 ft 462 kts 80°
2026-04-25 17:54 52.86954 -51.55443 34583 ft 462 kts 80°
2026-04-25 17:55 52.87905 -51.44902 34588 ft 462 kts 80°
2026-04-25 17:55 52.88839 -51.34448 34577 ft 461 kts 80°
2026-04-25 17:56 52.89768 -51.23927 34575 ft 461 kts 81°
2026-04-25 17:56 52.90679 -51.13486 34577 ft 461 kts 81°
2026-04-25 17:57 52.91598 -51.02970 34572 ft 461 kts 81°
2026-04-25 17:57 52.92490 -50.92545 34562 ft 461 kts 81°
2026-04-25 17:58 52.93379 -50.82033 34573 ft 460 kts 81°
2026-04-25 17:58 52.94252 -50.71592 34567 ft 460 kts 81°
2026-04-25 17:59 52.95125 -50.61063 34569 ft 460 kts 81°
2026-04-25 17:59 52.95988 -50.50540 34571 ft 460 kts 81°
2026-04-25 18:00 52.96845 -50.39988 34566 ft 461 kts 82°
2026-04-25 18:00 52.97689 -50.29451 34567 ft 460 kts 82°
2026-04-25 18:01 52.98520 -50.18974 34552 ft 460 kts 82°
2026-04-25 18:01 52.99347 -50.08439 34559 ft 460 kts 82°
2026-04-25 18:02 53.00246 -49.98005 34560 ft 460 kts 77°
2026-04-25 18:02 53.01723 -49.87661 34563 ft 460 kts 76°
2026-04-25 18:03 53.03229 -49.77398 34551 ft 460 kts 76°
2026-04-25 18:03 53.04724 -49.67031 34559 ft 461 kts 76°
2026-04-25 18:04 53.06197 -49.56647 34558 ft 461 kts 77°
2026-04-25 18:04 53.07657 -49.46243 34545 ft 462 kts 77°
2026-04-25 18:05 53.09099 -49.35900 34546 ft 462 kts 77°
2026-04-25 18:05 53.10544 -49.25459 34542 ft 463 kts 77°
2026-04-25 18:06 53.11980 -49.15017 34535 ft 462 kts 77°
2026-04-25 18:06 53.13406 -49.04578 34525 ft 461 kts 77°
2026-04-25 18:07 53.14796 -48.94332 34543 ft 461 kts 77°
2026-04-25 18:07 53.16200 -48.83904 34544 ft 461 kts 77°
2026-04-25 18:08 53.17595 -48.73473 34532 ft 462 kts 78°
2026-04-25 18:08 53.18748 -48.64789 34539 ft 462 kts 78°
2026-04-25 18:09 53.20129 -48.54312 34544 ft 463 kts 78°
2026-04-25 18:09 53.21504 -48.43815 34528 ft 463 kts 78°
2026-04-25 18:10 53.22866 -48.33343 34541 ft 464 kts 78°
2026-04-25 18:10 53.24232 -48.22753 34533 ft 465 kts 78°
2026-04-25 18:11 53.25577 -48.12255 34540 ft 464 kts 78°
2026-04-25 18:11 53.26922 -48.01677 34532 ft 464 kts 78°
2026-04-25 18:12 53.28237 -47.91255 34544 ft 464 kts 78°
2026-04-25 18:12 53.29558 -47.80671 34531 ft 464 kts 79°
2026-04-25 18:13 53.30876 -47.70098 34537 ft 464 kts 79°
2026-04-25 18:13 53.32173 -47.59590 34535 ft 464 kts 79°
2026-04-25 18:14 53.34110 -47.43708 34542 ft 464 kts 79°
2026-04-25 18:14 53.35392 -47.33105 34532 ft 464 kts 79°
2026-04-25 18:15 53.36663 -47.22502 34530 ft 464 kts 79°
2026-04-25 18:15 53.37919 -47.11952 34535 ft 464 kts 79°
2026-04-25 18:16 53.39174 -47.01318 34545 ft 464 kts 80°
2026-04-25 18:17 53.41019 -46.85523 34541 ft 465 kts 80°
2026-04-25 18:17 53.42252 -46.74856 34546 ft 466 kts 80°
2026-04-25 18:18 53.43477 -46.64179 34547 ft 466 kts 80°
2026-04-25 18:18 53.44684 -46.53567 34548 ft 466 kts 80°
2026-04-25 18:19 53.45891 -46.42867 34550 ft 466 kts 80°
2026-04-25 18:19 53.47087 -46.32171 34548 ft 466 kts 80°
2026-04-25 18:20 53.48266 -46.21531 34542 ft 466 kts 81°
2026-04-25 18:20 53.49443 -46.10831 34532 ft 466 kts 81°
2026-04-25 18:21 53.50609 -46.00128 34555 ft 465 kts 81°
2026-04-25 18:21 53.51755 -45.89519 34553 ft 465 kts 81°
2026-04-25 18:22 53.52902 -45.78798 34544 ft 466 kts 81°
2026-04-25 18:22 53.54032 -45.68153 34549 ft 465 kts 81°
2026-04-25 18:23 53.55160 -45.57425 34557 ft 465 kts 81°
2026-04-25 18:23 53.56273 -45.46751 34538 ft 465 kts 82°
2026-04-25 18:24 53.57382 -45.36016 34558 ft 464 kts 82°
2026-04-25 18:24 53.58475 -45.25334 34553 ft 465 kts 82°
2026-04-25 18:25 53.59560 -45.14624 34573 ft 465 kts 82°
2026-04-25 18:25 53.60640 -45.03870 34565 ft 465 kts 82°
2026-04-25 18:26 53.61697 -44.93255 34569 ft 465 kts 82°
2026-04-25 18:26 53.62757 -44.82498 34570 ft 465 kts 82°
2026-04-25 18:27 53.63808 -44.71730 34571 ft 465 kts 83°
2026-04-25 18:27 53.64844 -44.61006 34575 ft 466 kts 83°
2026-04-25 18:28 53.65878 -44.50209 34581 ft 466 kts 83°
2026-04-25 18:28 53.66903 -44.39394 34584 ft 466 kts 83°
2026-04-25 18:29 53.68418 -44.23208 34572 ft 466 kts 83°
2026-04-25 18:30 53.70419 -44.01543 34589 ft 470 kts 84°
2026-04-25 18:30 53.71390 -43.90715 34607 ft 472 kts 84°
2026-04-25 18:31 53.72372 -43.79722 34606 ft 473 kts 84°
2026-04-25 18:31 53.73343 -43.68784 34602 ft 474 kts 84°
2026-04-25 18:32 53.74308 -43.57785 34595 ft 472 kts 84°
2026-04-25 18:32 53.75262 -43.46795 34601 ft 471 kts 84°
2026-04-25 18:33 53.76196 -43.35899 34615 ft 470 kts 84°
2026-04-25 18:33 53.77124 -43.24961 34614 ft 469 kts 85°
2026-04-25 18:34 53.78042 -43.14010 34623 ft 471 kts 85°
2026-04-25 18:34 53.78948 -43.03083 34602 ft 472 kts 86°
2026-04-25 18:35 53.79840 -42.92197 34624 ft 473 kts 86°
2026-04-25 18:35 53.80735 -42.81156 34631 ft 473 kts 86°
2026-04-25 18:36 53.81620 -42.70113 34628 ft 474 kts 86°
2026-04-25 18:36 53.82494 -42.59058 34638 ft 473 kts 86°
2026-04-25 18:37 53.83359 -42.48000 34637 ft 473 kts 86°
2026-04-25 18:37 53.84211 -42.36966 34636 ft 472 kts 86°
2026-04-25 18:38 53.85052 -42.25950 34637 ft 471 kts 86°
2026-04-25 18:38 53.85877 -42.14992 34649 ft 471 kts 86°
2026-04-25 18:39 53.86697 -42.03968 34648 ft 470 kts 86°
2026-04-25 18:39 53.87496 -41.93084 34658 ft 470 kts 87°
2026-04-25 18:40 53.88294 -41.82081 34633 ft 470 kts 87°
2026-04-25 18:40 53.89077 -41.71140 34647 ft 470 kts 87°
2026-04-25 18:41 53.89855 -41.60124 34664 ft 470 kts 87°
2026-04-25 18:41 53.90619 -41.49165 34666 ft 471 kts 87°
2026-04-25 18:42 53.91130 -41.41746 34668 ft 471 kts 87°
2026-04-25 18:42 53.92131 -41.27032 34670 ft 471 kts 88°
2026-04-25 18:43 53.92865 -41.16047 34672 ft 470 kts 88°
2026-04-25 18:43 53.93594 -41.04992 34684 ft 471 kts 88°
2026-04-25 18:44 53.94307 -40.94022 34683 ft 471 kts 88°
2026-04-25 18:44 53.95014 -40.82979 34683 ft 472 kts 88°
2026-04-25 18:45 53.95712 -40.71927 34685 ft 473 kts 88°
2026-04-25 18:45 53.96403 -40.60812 34693 ft 473 kts 88°
2026-04-25 18:46 53.97084 -40.49694 34689 ft 472 kts 89°
2026-04-25 18:46 53.97754 -40.38585 34701 ft 472 kts 89°
2026-04-25 18:47 53.98408 -40.27575 34701 ft 471 kts 89°
2026-04-25 18:47 53.99055 -40.16505 34700 ft 470 kts 89°
2026-04-25 18:48 53.99692 -40.05454 34701 ft 469 kts 89°
2026-04-25 18:48 54.00275 -39.94561 34686 ft 468 kts 90°
2026-04-25 18:49 54.00717 -39.83539 34701 ft 468 kts 91°
2026-04-25 18:49 54.01126 -39.72479 34711 ft 469 kts 91°
2026-04-25 18:50 54.01540 -39.61441 34717 ft 470 kts 91°
2026-04-25 18:50 54.01959 -39.50321 34699 ft 471 kts 91°
2026-04-25 18:51 54.02236 -39.42881 34722 ft 472 kts 91°
2026-04-25 18:51 54.02775 -39.28034 34710 ft 472 kts 91°
2026-04-25 18:52 54.03165 -39.16942 34738 ft 473 kts 91°
2026-04-25 18:52 54.03547 -39.05763 34734 ft 474 kts 91°
2026-04-25 18:53 54.03916 -38.94656 34735 ft 474 kts 91°
2026-04-25 18:53 54.04279 -38.83453 34745 ft 474 kts 91°
2026-04-25 18:54 54.04803 -38.66643 34725 ft 474 kts 91°
2026-04-25 18:55 54.05138 -38.55437 34732 ft 475 kts 91°
2026-04-25 18:55 54.05465 -38.44175 34747 ft 477 kts 91°
2026-04-25 18:56 54.05780 -38.32953 34754 ft 478 kts 91°
2026-04-25 18:56 54.06088 -38.21624 34751 ft 479 kts 91°
2026-04-25 18:57 54.06386 -38.10264 34758 ft 480 kts 92°
2026-04-25 18:57 54.06669 -37.99021 34742 ft 480 kts 92°
2026-04-25 18:58 54.06946 -37.87648 34764 ft 481 kts 92°
2026-04-25 18:58 54.07346 -37.70617 34771 ft 483 kts 92°
2026-04-25 18:59 54.07835 -37.47730 34775 ft 484 kts 92°
2026-04-25 19:00 54.08175 -37.30540 34770 ft 485 kts 92°
2026-04-25 19:01 54.08458 -37.15245 34781 ft 486 kts 92°
2026-04-25 19:01 54.08658 -37.03722 34784 ft 487 kts 92°
2026-04-25 19:02 54.08936 -36.86566 34791 ft 487 kts 93°
2026-04-25 19:03 54.09163 -36.71204 34774 ft 487 kts 93°
2026-04-25 19:03 54.09341 -36.57707 34796 ft 488 kts 93°
2026-04-25 19:04 54.09575 -36.40312 34805 ft 490 kts 93°
2026-04-25 19:05 54.09814 -36.17023 34807 ft 492 kts 93°
2026-04-25 19:06 54.09918 -36.05426 34803 ft 492 kts 93°
2026-04-25 19:06 54.10058 -35.88010 34815 ft 493 kts 93°
2026-04-25 19:07 54.10173 -35.70523 34823 ft 494 kts 93°
2026-04-25 19:08 54.10263 -35.52940 34829 ft 495 kts 93°
2026-04-25 19:09 54.10338 -35.31377 34836 ft 496 kts 94°
2026-04-25 19:10 54.10373 -35.11809 34840 ft 498 kts 94°
2026-04-25 19:10 54.10379 -35.00005 34844 ft 498 kts 94°
2026-04-25 19:11 54.10373 -34.88291 34829 ft 498 kts 94°
2026-04-25 19:11 54.10356 -34.76478 34835 ft 499 kts 94°
2026-04-25 19:12 54.10327 -34.64639 34854 ft 500 kts 94°
2026-04-25 19:12 54.10286 -34.52777 34857 ft 501 kts 94°
2026-04-25 19:13 54.10234 -34.40892 34863 ft 502 kts 94°
2026-04-25 19:13 54.10170 -34.29001 34868 ft 502 kts 94°
2026-04-25 19:14 54.10095 -34.17189 34870 ft 502 kts 94°
2026-04-25 19:14 54.10008 -34.05303 34868 ft 502 kts 94°
2026-04-25 19:15 54.09910 -33.93561 34859 ft 501 kts 94°
2026-04-25 19:15 54.09799 -33.81705 34866 ft 500 kts 94°
2026-04-25 19:16 54.09677 -33.69858 34871 ft 500 kts 94°
2026-04-25 19:16 54.09543 -33.58015 34872 ft 500 kts 94°
2026-04-25 19:17 54.09398 -33.46172 34871 ft 500 kts 94°
2026-04-25 19:17 54.09240 -33.34314 34881 ft 501 kts 94°
2026-04-25 19:18 54.09071 -33.22409 34889 ft 503 kts 95°
2026-04-25 19:18 54.08891 -33.10577 34885 ft 504 kts 95°
2026-04-25 19:19 54.08699 -32.98754 34887 ft 504 kts 95°
2026-04-25 19:19 54.08494 -32.86814 34884 ft 504 kts 94°
2026-04-25 19:20 54.08277 -32.74865 34891 ft 504 kts 95°
2026-04-25 19:20 54.08049 -32.62936 34894 ft 504 kts 95°
2026-04-25 19:21 54.07808 -32.50996 34894 ft 504 kts 95°
2026-04-25 19:21 54.07425 -32.33101 34898 ft 504 kts 95°
2026-04-25 19:22 54.07157 -32.21270 34899 ft 504 kts 95°
2026-04-25 19:23 54.06729 -32.03372 34904 ft 505 kts 95°
2026-04-25 19:23 54.06278 -31.85571 34909 ft 506 kts 95°
2026-04-25 19:24 54.05959 -31.73591 34913 ft 507 kts 95°
2026-04-25 19:25 54.05285 -31.49612 34908 ft 508 kts 95°
2026-04-25 19:25 54.04932 -31.37665 34918 ft 508 kts 95°
2026-04-25 19:26 54.04564 -31.25642 34909 ft 509 kts 95°
2026-04-25 19:26 54.04182 -31.13544 34916 ft 509 kts 95°
2026-04-25 19:27 54.03857 -31.03558 34922 ft 509 kts 95°
2026-04-25 19:27 54.03387 -30.89702 34923 ft 509 kts 95°
2026-04-25 19:28 54.02968 -30.77666 34933 ft 510 kts 95°
2026-04-25 19:28 54.02553 -30.65587 34938 ft 511 kts 95°
2026-04-25 19:29 54.02109 -30.53497 34929 ft 512 kts 96°
2026-04-25 19:29 54.01650 -30.41415 34936 ft 512 kts 96°
2026-04-25 19:30 54.01185 -30.29401 34931 ft 512 kts 96°
2026-04-25 19:30 54.00706 -30.17307 34938 ft 513 kts 96°
2026-04-25 19:31 54.00216 -30.05185 34947 ft 514 kts 96°
2026-04-25 19:31 54.00168 -29.93167 34946 ft 517 kts 88°
2026-04-25 19:32 54.00694 -29.80982 34951 ft 517 kts 87°
2026-04-25 19:32 54.01061 -29.72809 34946 ft 518 kts 87°
2026-04-25 19:33 54.01729 -29.56543 34943 ft 519 kts 87°
2026-04-25 19:33 54.02189 -29.44295 34953 ft 519 kts 87°
2026-04-25 19:34 54.02632 -29.32024 34950 ft 519 kts 88°
2026-04-25 19:34 54.03064 -29.19749 34936 ft 519 kts 88°
2026-04-25 19:35 54.03483 -29.07557 34951 ft 519 kts 87°
2026-04-25 19:35 54.03887 -28.95443 34956 ft 520 kts 88°
2026-04-25 19:36 54.04285 -28.83156 34955 ft 520 kts 88°
2026-04-25 19:36 54.04670 -28.70862 34961 ft 520 kts 88°
2026-04-25 19:37 54.05043 -28.58559 34961 ft 520 kts 88°
2026-04-25 19:37 54.05403 -28.46258 34965 ft 521 kts 88°
2026-04-25 19:38 54.05751 -28.33939 34958 ft 521 kts 88°
2026-04-25 19:38 54.06087 -28.21598 34963 ft 522 kts 88°
2026-04-25 19:39 54.06410 -28.09250 34961 ft 522 kts 88°
2026-04-25 19:39 54.06718 -27.97017 34946 ft 522 kts 88°
2026-04-25 19:40 54.07016 -27.84670 34959 ft 521 kts 88°
2026-04-25 19:40 54.07300 -27.72406 34963 ft 521 kts 88°
2026-04-25 19:41 54.07572 -27.60070 34965 ft 521 kts 89°
2026-04-25 19:41 54.07747 -27.51814 34969 ft 521 kts 89°
2026-04-25 19:42 54.08079 -27.35388 34969 ft 522 kts 88°
2026-04-25 19:42 54.08314 -27.23033 34969 ft 522 kts 89°
2026-04-25 19:43 54.08537 -27.10672 34968 ft 522 kts 89°
2026-04-25 19:43 54.08744 -26.98450 34978 ft 523 kts 89°
2026-04-25 19:44 54.08942 -26.86064 34973 ft 523 kts 89°
2026-04-25 19:44 54.09126 -26.73677 34959 ft 523 kts 89°
2026-04-25 19:45 54.09299 -26.61270 34964 ft 523 kts 89°
2026-04-25 19:45 54.09457 -26.48956 34974 ft 523 kts 89°
2026-04-25 19:46 54.09605 -26.36515 34974 ft 523 kts 89°
2026-04-25 19:46 54.09738 -26.24171 34975 ft 523 kts 89°
2026-04-25 19:47 54.09859 -26.11768 34977 ft 524 kts 89°
2026-04-25 19:47 54.09950 -26.01446 34973 ft 524 kts 89°
2026-04-25 19:48 54.10063 -25.87064 34977 ft 524 kts 90°
2026-04-25 19:48 54.10146 -25.74651 34974 ft 524 kts 90°
2026-04-25 19:49 54.10194 -25.66421 34974 ft 524 kts 90°
2026-04-25 19:49 54.10274 -25.49864 34977 ft 524 kts 90°
2026-04-25 19:50 54.10331 -25.33308 34977 ft 523 kts 90°
2026-04-25 19:51 54.10359 -25.20889 34984 ft 523 kts 90°
2026-04-25 19:51 54.10374 -25.08467 34983 ft 523 kts 90°
2026-04-25 19:52 54.10377 -24.96242 34985 ft 524 kts 90°
2026-04-25 19:52 54.10366 -24.83816 34981 ft 524 kts 90°
2026-04-25 19:53 54.10343 -24.71394 34984 ft 524 kts 91°
2026-04-25 19:53 54.10308 -24.58963 34987 ft 524 kts 91°
2026-04-25 19:54 54.10259 -24.46517 34997 ft 524 kts 91°
2026-04-25 19:54 54.10198 -24.34151 34990 ft 525 kts 91°
2026-04-25 19:55 54.10123 -24.21705 34962 ft 524 kts 91°
2026-04-25 19:55 54.10037 -24.09288 34986 ft 524 kts 91°
2026-04-25 19:56 54.09938 -23.96970 34989 ft 523 kts 91°
2026-04-25 19:56 54.09826 -23.84570 34998 ft 523 kts 92°
2026-04-25 19:57 54.09701 -23.72213 34992 ft 523 kts 92°
2026-04-25 19:57 54.09563 -23.59796 34998 ft 523 kts 92°
2026-04-25 19:58 54.09413 -23.47456 34994 ft 523 kts 92°
2026-04-25 19:58 54.09250 -23.35038 35002 ft 524 kts 92°
2026-04-25 19:59 54.09074 -23.22635 35003 ft 524 kts 93°
2026-04-25 19:59 54.08885 -23.10226 35001 ft 524 kts 93°
2026-04-25 20:00 54.08685 -22.97940 34994 ft 524 kts 93°
2026-04-25 20:00 54.08473 -22.85629 35003 ft 523 kts 93°
2026-04-25 20:01 54.08129 -22.67097 35007 ft 521 kts 94°
2026-04-25 20:01 54.07885 -22.54761 35007 ft 521 kts 94°
2026-04-25 20:02 54.07627 -22.42425 35013 ft 521 kts 94°
2026-04-25 20:02 54.07357 -22.30082 35008 ft 521 kts 94°
2026-04-25 20:03 54.07075 -22.17761 35009 ft 520 kts 94°
2026-04-25 20:03 54.06780 -22.05442 35008 ft 521 kts 94°
2026-04-25 20:04 54.06477 -21.93320 35015 ft 521 kts 95°
2026-04-25 20:04 54.06157 -21.80981 35016 ft 521 kts 95°
2026-04-25 20:05 54.05824 -21.68644 35017 ft 521 kts 95°
2026-04-25 20:05 54.05480 -21.56379 35017 ft 521 kts 95°
2026-04-25 20:06 54.05122 -21.44044 35021 ft 521 kts 95°
2026-04-25 20:06 54.04750 -21.31684 35022 ft 522 kts 95°
2026-04-25 20:07 54.04366 -21.19345 35023 ft 522 kts 95°
2026-04-25 20:07 54.03970 -21.07010 35021 ft 522 kts 95°
2026-04-25 20:08 54.03567 -20.94857 35031 ft 522 kts 96°
2026-04-25 20:08 54.03145 -20.82507 35032 ft 523 kts 96°
2026-04-25 20:09 54.02710 -20.70155 35033 ft 523 kts 96°
2026-04-25 20:09 54.02263 -20.57816 35035 ft 523 kts 96°
2026-04-25 20:10 54.01804 -20.45486 35028 ft 522 kts 96°
2026-04-25 20:10 54.01333 -20.33194 35041 ft 520 kts 96°
2026-04-25 20:11 54.00852 -20.20947 35044 ft 518 kts 96°
2026-04-25 20:11 54.00364 -20.08798 35048 ft 517 kts 96°
2026-04-25 20:12 53.99994 -19.96697 35055 ft 518 kts 91°
2026-04-25 20:12 54.00133 -19.88490 35061 ft 518 kts 90°
2026-04-25 20:13 54.00514 -19.72181 35064 ft 518 kts 90°
2026-04-25 20:13 54.00764 -19.59930 35062 ft 518 kts 90°
2026-04-25 20:14 54.00974 -19.47722 35063 ft 518 kts 91°
2026-04-25 20:14 54.01166 -19.35464 35063 ft 518 kts 91°
2026-04-25 20:15 54.01346 -19.23209 35073 ft 518 kts 91°
2026-04-25 20:15 54.01515 -19.10960 35076 ft 517 kts 91°
2026-04-25 20:16 54.01671 -18.98901 35073 ft 517 kts 91°
2026-04-25 20:16 54.01816 -18.86689 35077 ft 515 kts 91°
2026-04-25 20:17 54.01948 -18.74524 35067 ft 514 kts 91°
2026-04-25 20:17 54.02067 -18.62379 35084 ft 512 kts 91°
2026-04-25 20:18 54.02174 -18.50310 35090 ft 511 kts 92°
2026-04-25 20:18 54.02268 -18.38287 35091 ft 510 kts 92°
2026-04-25 20:19 54.02350 -18.26204 35089 ft 510 kts 92°
2026-04-25 20:19 54.02420 -18.14170 35091 ft 509 kts 92°
2026-04-25 20:20 54.02478 -18.02158 35099 ft 509 kts 92°
2026-04-25 20:20 54.02524 -17.90212 35095 ft 509 kts 92°
2026-04-25 20:21 54.02558 -17.78217 35103 ft 509 kts 92°
2026-04-25 20:21 54.02580 -17.66159 35104 ft 508 kts 92°
2026-04-25 20:22 54.02588 -17.58144 35096 ft 508 kts 92°
2026-04-25 20:22 54.02588 -17.42190 35100 ft 508 kts 92°
2026-04-25 20:23 54.02575 -17.30159 35111 ft 508 kts 93°
2026-04-25 20:23 54.02549 -17.18151 35098 ft 507 kts 93°
2026-04-25 20:24 54.02511 -17.06158 35105 ft 507 kts 93°
2026-04-25 20:24 54.02463 -16.94312 35117 ft 506 kts 93°
2026-04-25 20:25 54.02401 -16.82395 35123 ft 506 kts 93°
2026-04-25 20:25 54.02328 -16.70414 35122 ft 507 kts 94°
2026-04-25 20:26 54.02243 -16.58426 35122 ft 507 kts 94°
2026-04-25 20:26 54.02146 -16.46405 35130 ft 507 kts 94°
2026-04-25 20:27 54.02037 -16.34473 35135 ft 507 kts 94°
2026-04-25 20:27 54.01916 -16.22416 35132 ft 507 kts 94°
2026-04-25 20:28 54.01783 -16.10462 35134 ft 507 kts 94°
2026-04-25 20:28 54.01640 -15.98561 35119 ft 507 kts 94°
2026-04-25 20:29 54.01484 -15.86611 35128 ft 507 kts 95°
2026-04-25 20:29 54.01316 -15.74657 35149 ft 508 kts 95°
2026-04-25 20:30 54.01134 -15.62600 35147 ft 508 kts 95°
2026-04-25 20:30 54.00942 -15.50613 35151 ft 509 kts 95°
2026-04-25 20:31 54.00738 -15.38652 35139 ft 508 kts 95°
2026-04-25 20:31 54.00521 -15.26586 35145 ft 509 kts 95°
2026-04-25 20:32 54.00292 -15.14572 35149 ft 510 kts 95°
2026-04-25 20:32 54.00053 -15.02501 35155 ft 511 kts 96°
2026-04-25 20:33 53.99930 -14.90527 35157 ft 512 kts 93°
2026-04-25 20:33 53.99984 -14.82481 35150 ft 512 kts 92°
2026-04-25 20:34 54.00089 -14.66356 35165 ft 512 kts 93°
2026-04-25 20:34 54.00108 -14.54245 35163 ft 511 kts 94°
2026-04-25 20:35 54.00102 -14.42211 35161 ft 511 kts 94°
2026-04-25 20:35 54.00086 -14.30109 35160 ft 510 kts 94°
2026-04-25 20:36 54.00061 -14.18097 35170 ft 510 kts 94°
2026-04-25 20:36 54.00025 -14.06039 35172 ft 510 kts 94°
2026-04-25 20:37 53.99674 -13.96176 35173 ft 505 kts 102°
2026-04-25 20:37 53.98405 -13.84471 35185 ft 503 kts 105°
2026-04-25 20:38 53.97059 -13.72788 35171 ft 503 kts 105°
2026-04-25 20:38 53.95732 -13.61091 35284 ft 507 kts 104°
2026-04-25 20:39 53.95073 -13.55208 35566 ft 506 kts 104°
2026-04-25 20:39 53.94426 -13.49423 35930 ft 504 kts 104°
2026-04-25 20:39 53.93771 -13.43574 36288 ft 503 kts 104°
2026-04-25 20:39 53.93336 -13.39701 36512 ft 502 kts 104°
2026-04-25 20:40 53.92455 -13.31905 36901 ft 501 kts 104°
2026-04-25 20:40 53.91799 -13.26145 37112 ft 502 kts 104°
2026-04-25 20:40 53.90459 -13.14472 37186 ft 504 kts 104°
2026-04-25 20:41 53.89112 -13.02831 37182 ft 501 kts 104°
2026-04-25 20:41 53.87776 -12.91387 37186 ft 499 kts 104°
2026-04-25 20:42 53.86426 -12.79932 37189 ft 498 kts 104°
2026-04-25 20:42 53.85057 -12.68418 37194 ft 498 kts 104°
2026-04-25 20:43 53.83676 -12.56912 37169 ft 498 kts 104°
2026-04-25 20:43 53.82292 -12.45470 37193 ft 499 kts 104°
2026-04-25 20:44 53.80882 -12.33911 37205 ft 501 kts 104°
2026-04-25 20:44 53.79458 -12.22337 37204 ft 502 kts 105°
2026-04-25 20:45 53.78030 -12.10825 37204 ft 503 kts 105°
2026-04-25 20:45 53.76594 -11.99343 37200 ft 503 kts 105°
2026-04-25 20:46 53.75135 -11.87773 37205 ft 503 kts 105°
2026-04-25 20:46 53.73670 -11.76251 37204 ft 503 kts 105°
2026-04-25 20:47 53.72187 -11.64690 37207 ft 503 kts 105°
2026-04-25 20:47 53.70707 -11.53240 37208 ft 502 kts 105°
2026-04-25 20:48 53.69207 -11.41738 37193 ft 501 kts 105°
2026-04-25 20:48 53.67697 -11.30241 37206 ft 501 kts 105°
2026-04-25 20:49 53.66177 -11.18769 37210 ft 501 kts 105°
2026-04-25 20:49 53.64646 -11.07303 37210 ft 501 kts 105°
2026-04-25 20:50 53.63118 -10.95945 37213 ft 501 kts 105°
2026-04-25 20:50 53.61574 -10.84558 37212 ft 501 kts 105°
2026-04-25 20:51 53.60008 -10.73099 37212 ft 501 kts 105°
2026-04-25 20:51 53.58433 -10.61660 37212 ft 501 kts 105°
2026-04-25 20:52 53.57115 -10.52158 37212 ft 501 kts 106°
2026-04-25 20:52 53.55259 -10.38871 37203 ft 501 kts 105°
2026-04-25 20:53 53.53650 -10.27451 37208 ft 501 kts 105°
2026-04-25 20:53 53.52042 -10.16119 37220 ft 501 kts 106°
2026-04-25 20:54 53.50410 -10.04712 37219 ft 502 kts 106°
2026-04-25 20:54 53.48784 -9.93420 37216 ft 502 kts 106°
2026-04-25 20:55 53.47130 -9.82018 37212 ft 502 kts 106°
2026-04-25 20:55 53.45475 -9.70694 37211 ft 502 kts 106°
2026-04-25 20:56 53.43796 -9.59292 37219 ft 502 kts 106°
2026-04-25 20:56 53.42111 -9.47930 37222 ft 502 kts 106°
2026-04-25 20:57 53.40423 -9.36630 37211 ft 502 kts 106°
2026-04-25 20:57 53.38713 -9.25262 37212 ft 502 kts 106°
2026-04-25 20:58 53.36996 -9.13924 37206 ft 501 kts 106°
2026-04-25 20:58 53.35270 -9.02612 37217 ft 501 kts 106°
2026-04-25 20:59 53.33564 -8.91505 37207 ft 501 kts 107°
2026-04-25 20:59 53.31815 -8.80201 37217 ft 502 kts 107°
2026-04-25 21:00 53.30639 -8.72643 37197 ft 502 kts 107°
2026-04-25 21:01 53.27392 -8.51953 37209 ft 502 kts 107°
2026-04-25 21:01 53.25618 -8.40754 37185 ft 502 kts 107°
2026-04-25 21:02 53.23821 -8.29486 37206 ft 501 kts 107°
2026-04-25 21:02 53.22023 -8.18290 37181 ft 501 kts 107°
2026-04-25 21:03 53.20206 -8.07054 37196 ft 501 kts 107°
2026-04-25 21:03 53.18401 -7.95959 37188 ft 501 kts 107°
2026-04-25 21:04 53.16565 -7.84751 37188 ft 501 kts 107°
2026-04-25 21:04 53.14719 -7.73561 37186 ft 501 kts 107°
2026-04-25 21:05 53.12859 -7.62352 37184 ft 501 kts 107°
2026-04-25 21:05 53.10993 -7.51179 37185 ft 501 kts 107°
2026-04-25 21:06 53.09128 -7.40086 37183 ft 501 kts 107°
2026-04-25 21:06 53.07238 -7.28920 37185 ft 500 kts 107°
2026-04-25 21:07 53.05342 -7.17784 37185 ft 500 kts 107°
2026-04-25 21:07 53.03434 -7.06653 37172 ft 500 kts 107°
2026-04-25 21:08 53.01537 -6.95652 37188 ft 500 kts 108°
2026-04-25 21:08 52.99613 -6.84563 37193 ft 500 kts 108°
2026-04-25 21:09 52.96711 -6.67969 37195 ft 501 kts 108°
2026-04-25 21:09 52.94754 -6.56864 37198 ft 501 kts 108°
2026-04-25 21:10 52.92787 -6.45777 37202 ft 501 kts 108°
2026-04-25 21:10 52.90819 -6.34745 37200 ft 501 kts 108°
2026-04-25 21:11 52.88841 -6.23725 37203 ft 501 kts 108°
2026-04-25 21:11 52.86844 -6.12669 37207 ft 501 kts 108°
2026-04-25 21:12 52.84837 -6.01623 37190 ft 500 kts 108°
2026-04-25 21:12 52.83179 -5.92546 37203 ft 500 kts 108°
2026-04-25 21:13 52.80827 -5.79748 37213 ft 500 kts 108°
2026-04-25 21:13 52.78794 -5.68751 37212 ft 500 kts 108°
2026-04-25 21:14 52.76750 -5.57755 37215 ft 500 kts 109°
2026-04-25 21:14 52.74451 -5.47009 37214 ft 498 kts 117°
2026-04-25 21:15 52.71301 -5.36854 37228 ft 497 kts 120°
2026-04-25 21:15 52.68091 -5.26822 37221 ft 497 kts 120°
2026-04-25 21:16 52.64878 -5.16705 37203 ft 498 kts 119°
2026-04-25 21:16 52.61678 -5.06574 37221 ft 497 kts 119°
2026-04-25 21:17 52.58511 -4.96561 37225 ft 498 kts 119°
2026-04-25 21:17 52.55323 -4.86528 37222 ft 498 kts 120°
2026-04-25 21:18 52.52104 -4.76446 37220 ft 497 kts 120°
2026-04-25 21:18 52.48883 -4.66401 37220 ft 497 kts 120°
2026-04-25 21:19 52.45655 -4.56375 37217 ft 497 kts 120°
2026-04-25 21:19 52.42417 -4.46359 37212 ft 497 kts 120°
2026-04-25 21:20 52.40268 -4.39736 37215 ft 497 kts 120°
2026-04-25 21:20 52.35934 -4.26427 37222 ft 498 kts 120°
2026-04-25 21:21 52.32666 -4.16443 37221 ft 498 kts 120°
2026-04-25 21:21 52.29386 -4.06459 37224 ft 499 kts 120°
2026-04-25 21:22 52.26114 -3.96541 37217 ft 499 kts 120°
2026-04-25 21:22 52.22827 -3.86616 37225 ft 500 kts 120°
2026-04-25 21:23 52.19510 -3.76642 37218 ft 500 kts 120°
2026-04-25 21:23 52.16182 -3.66674 37223 ft 500 kts 120°
2026-04-25 21:24 52.12849 -3.56731 37220 ft 500 kts 120°
2026-04-25 21:24 52.09523 -3.46850 37224 ft 500 kts 120°
2026-04-25 21:25 52.06169 -3.36926 37222 ft 500 kts 120°
2026-04-25 21:25 52.02813 -3.27032 37223 ft 499 kts 120°
2026-04-25 21:26 51.99475 -3.17232 37231 ft 499 kts 120°
2026-04-25 21:26 51.96104 -3.07375 37246 ft 499 kts 120°
2026-04-25 21:27 51.92758 -2.97627 37262 ft 499 kts 121°
2026-04-25 21:27 51.89367 -2.87790 37275 ft 499 kts 120°
2026-04-25 21:28 51.85992 -2.78035 37213 ft 499 kts 121°
2026-04-25 21:28 51.82591 -2.68242 37218 ft 499 kts 121°
2026-04-25 21:29 51.79182 -2.58466 37216 ft 499 kts 121°
2026-04-25 21:29 51.76344 -2.50355 37208 ft 499 kts 121°
2026-04-25 21:30 51.72918 -2.40601 37225 ft 499 kts 121°
2026-04-25 21:30 51.70065 -2.32505 37207 ft 499 kts 121°
2026-04-25 21:31 51.66060 -2.21184 37210 ft 499 kts 121°
2026-04-25 21:31 51.62611 -2.11475 37233 ft 499 kts 121°
2026-04-25 21:32 51.59149 -2.01765 37230 ft 499 kts 121°
2026-04-25 21:32 51.55718 -1.92179 37212 ft 499 kts 121°
2026-04-25 21:33 51.52244 -1.82511 37221 ft 499 kts 121°
2026-04-25 21:33 51.48763 -1.72852 37224 ft 499 kts 121°
2026-04-25 21:34 51.45482 -1.63108 37223 ft 499 kts 116°
2026-04-25 21:34 51.42560 -1.53004 37209 ft 499 kts 115°
2026-04-25 21:35 51.39648 -1.42972 37232 ft 499 kts 116°
2026-04-25 21:35 51.36680 -1.32912 37233 ft 499 kts 116°
2026-04-25 21:36 51.33647 -1.22901 37236 ft 499 kts 119°
2026-04-25 21:36 51.29887 -1.13816 37235 ft 482 kts 129°
2026-04-25 21:37 51.26476 -1.06796 37242 ft 480 kts 128°
2026-04-25 21:37 51.21842 -0.97002 37136 ft 478 kts 128°
2026-04-25 21:38 51.19839 -0.92771 36866 ft 479 kts 128°
2026-04-25 21:38 51.17820 -0.88515 36496 ft 481 kts 128°
2026-04-25 21:38 51.15790 -0.84246 36153 ft 484 kts 128°
2026-04-25 21:38 51.13745 -0.79954 35830 ft 485 kts 128°
2026-04-25 21:39 51.11707 -0.75681 35678 ft 484 kts 128°
2026-04-25 21:39 51.09693 -0.71464 35486 ft 486 kts 128°
2026-04-25 21:39 51.07641 -0.67176 35288 ft 488 kts 128°
2026-04-25 21:39 51.05594 -0.62872 35107 ft 489 kts 126°
2026-04-25 21:40 51.03708 -0.58359 34908 ft 489 kts 122°
2026-04-25 21:40 51.01921 -0.53737 34740 ft 490 kts 121°
2026-04-25 21:40 51.00150 -0.49107 34536 ft 490 kts 121°
2026-04-25 21:40 50.98379 -0.44483 34351 ft 491 kts 121°
2026-04-25 21:41 50.96596 -0.39861 34151 ft 491 kts 122°
2026-04-25 21:41 50.94827 -0.35306 33939 ft 491 kts 122°
2026-04-25 21:41 50.93030 -0.30706 33718 ft 491 kts 122°
2026-04-25 21:41 50.91220 -0.26085 33499 ft 491 kts 122°
2026-04-25 21:42 50.89415 -0.21489 33340 ft 492 kts 122°
2026-04-25 21:42 50.87599 -0.16873 33294 ft 494 kts 122°
2026-04-25 21:42 50.83947 -0.07606 33207 ft 496 kts 122°
2026-04-25 21:43 50.82122 -0.02984 32959 ft 494 kts 122°
2026-04-25 21:43 50.80360 0.01469 32558 ft 489 kts 122°
2026-04-25 21:43 50.78547 0.06017 31832 ft 489 kts 123°
2026-04-25 21:43 50.76514 0.10341 31269 ft 491 kts 130°
2026-04-25 21:44 50.74202 0.14371 30832 ft 499 kts 135°
2026-04-25 21:44 50.71630 0.18113 30380 ft 506 kts 141°
2026-04-25 21:44 50.66133 0.24986 29392 ft 502 kts 143°
2026-04-25 21:45 50.63454 0.28327 28829 ft 480 kts 142°
2026-04-25 21:45 50.61752 0.30477 28491 ft 466 kts 142°
2026-04-25 21:45 50.58472 0.34646 27867 ft 440 kts 142°
2026-04-25 21:45 50.56105 0.37660 27407 ft 437 kts 142°
2026-04-25 21:46 50.53750 0.40656 27231 ft 433 kts 142°
2026-04-25 21:46 50.51418 0.43621 27042 ft 430 kts 142°
2026-04-25 21:46 50.49080 0.46588 26622 ft 432 kts 142°
2026-04-25 21:46 50.46772 0.49512 26509 ft 430 kts 142°
2026-04-25 21:47 50.44443 0.52455 26490 ft 426 kts 142°
2026-04-25 21:47 50.42145 0.55354 26441 ft 423 kts 142°
2026-04-25 21:47 50.39855 0.58241 26352 ft 422 kts 142°
2026-04-25 21:47 50.37572 0.61115 26302 ft 421 kts 142°
2026-04-25 21:48 50.35288 0.63986 26255 ft 421 kts 142°
2026-04-25 21:48 50.33000 0.66863 26254 ft 421 kts 142°
2026-04-25 21:48 50.30711 0.69740 26246 ft 421 kts 142°
2026-04-25 21:48 50.28457 0.72573 26243 ft 422 kts 142°
2026-04-25 21:49 50.26167 0.75448 26242 ft 422 kts 142°
2026-04-25 21:49 50.23876 0.78322 26242 ft 422 kts 142°
2026-04-25 21:49 50.21590 0.81185 26139 ft 420 kts 142°
2026-04-25 21:49 50.19318 0.84025 25782 ft 417 kts 142°
2026-04-25 21:50 50.17062 0.86838 25377 ft 414 kts 142°
2026-04-25 21:50 50.14816 0.89628 24973 ft 411 kts 142°
2026-04-25 21:50 50.12588 0.92392 24581 ft 408 kts 142°
2026-04-25 21:50 50.11114 0.94220 24314 ft 407 kts 142°
2026-04-25 21:51 50.08194 0.97836 23776 ft 404 kts 142°
2026-04-25 21:51 50.06039 1.00485 23358 ft 400 kts 144°
2026-04-25 21:51 50.03711 1.02723 23136 ft 388 kts 154°
2026-04-25 21:51 50.01310 1.04542 22945 ft 379 kts 156°
2026-04-25 21:52 49.98940 1.06235 22756 ft 370 kts 157°
2026-04-25 21:52 49.96616 1.07887 22458 ft 364 kts 156°
2026-04-25 21:52 49.94338 1.09521 21973 ft 358 kts 163°
2026-04-25 21:52 49.91905 1.10290 21416 ft 357 kts 176°
2026-04-25 21:53 49.89432 1.10518 21036 ft 354 kts 180°
2026-04-25 21:53 49.87001 1.10614 20709 ft 350 kts 181°
2026-04-25 21:53 49.84572 1.10683 20364 ft 348 kts 181°
2026-04-25 21:53 49.82160 1.10742 20000 ft 346 kts 181°
2026-04-25 21:54 49.79760 1.10795 19635 ft 344 kts 181°
2026-04-25 21:54 49.77374 1.10843 19282 ft 342 kts 181°
2026-04-25 21:54 49.74997 1.10887 18938 ft 340 kts 181°
2026-04-25 21:54 49.72636 1.10928 18599 ft 338 kts 181°
2026-04-25 21:55 49.70293 1.10962 18240 ft 335 kts 181°
2026-04-25 21:55 49.67964 1.10990 17855 ft 333 kts 181°
2026-04-25 21:55 49.65682 1.11012 17472 ft 332 kts 181°
2026-04-25 21:55 49.63379 1.11029 17091 ft 330 kts 181°
2026-04-25 21:56 49.61108 1.11288 16619 ft 327 kts 164°
2026-04-25 21:56 49.59730 1.12233 16248 ft 329 kts 146°
2026-04-25 21:56 49.57409 1.15295 15765 ft 327 kts 134°
2026-04-25 21:56 49.55842 1.17805 15441 ft 324 kts 133°
2026-04-25 21:57 49.54298 1.20312 15126 ft 322 kts 133°
2026-04-25 21:57 49.52746 1.22789 14783 ft 320 kts 134°
2026-04-25 21:57 49.51191 1.25221 14454 ft 318 kts 134°
2026-04-25 21:57 49.49650 1.27595 14134 ft 316 kts 135°
2026-04-25 21:58 49.48092 1.29968 13782 ft 314 kts 135°
2026-04-25 21:58 49.46538 1.32319 13425 ft 313 kts 135°
2026-04-25 21:58 49.44988 1.34654 13067 ft 311 kts 135°
2026-04-25 21:58 49.43442 1.36975 12691 ft 310 kts 135°
2026-04-25 21:59 49.41898 1.39290 12338 ft 309 kts 135°
2026-04-25 21:59 49.40363 1.41589 12013 ft 307 kts 135°
2026-04-25 21:59 49.38840 1.43867 11697 ft 305 kts 135°
2026-04-25 22:00 49.35832 1.48362 11049 ft 302 kts 135°
2026-04-25 22:00 49.34328 1.50606 10711 ft 301 kts 135°
2026-04-25 22:00 49.32831 1.52835 10417 ft 299 kts 135°
2026-04-25 22:00 49.31354 1.55033 10284 ft 290 kts 135°
2026-04-25 22:01 49.30195 1.57489 10203 ft 286 kts 111°
2026-04-25 22:01 49.29789 1.60446 9841 ft 285 kts 92°
2026-04-25 22:01 49.29688 1.63495 9423 ft 287 kts 92°
2026-04-25 22:01 49.29610 1.65519 9144 ft 288 kts 92°
2026-04-25 22:02 49.29438 1.69624 8677 ft 287 kts 93°
2026-04-25 22:02 49.29278 1.72608 8346 ft 282 kts 99°
2026-04-25 22:02 49.28508 1.75349 7858 ft 285 kts 129°
2026-04-25 22:02 49.26986 1.77252 7538 ft 283 kts 153°
2026-04-25 22:03 49.25200 1.78483 7305 ft 278 kts 156°
2026-04-25 22:03 49.23441 1.79638 7259 ft 273 kts 156°
2026-04-25 22:03 49.21679 1.80806 7242 ft 278 kts 156°
2026-04-25 22:03 49.19887 1.82004 7241 ft 283 kts 156°
2026-04-25 22:04 49.18080 1.83217 7213 ft 282 kts 156°
2026-04-25 22:04 49.16310 1.84407 7029 ft 281 kts 156°
2026-04-25 22:04 49.14523 1.85618 6744 ft 279 kts 156°
2026-04-25 22:04 49.12774 1.86880 6384 ft 275 kts 149°
2026-04-25 22:05 49.11198 1.88517 5885 ft 281 kts 143°
2026-04-25 22:05 49.09627 1.90333 5397 ft 286 kts 142°
2026-04-25 22:05 49.08052 1.92173 4890 ft 279 kts 142°
2026-04-25 22:05 49.06536 1.93941 4343 ft 267 kts 141°
2026-04-25 22:06 49.05109 1.95598 4060 ft 248 kts 142°
2026-04-25 22:06 49.03771 1.97148 4006 ft 236 kts 140°
2026-04-25 22:06 49.02730 1.99045 3999 ft 234 kts 115°
2026-04-25 22:06 49.02090 2.01243 4010 ft 236 kts 112°
2026-04-25 22:07 49.01441 2.03533 4000 ft 234 kts 112°
2026-04-25 22:07 49.01005 2.05069 3999 ft 233 kts 112°
2026-04-25 22:07 49.00230 2.08073 3989 ft 225 kts 98°
2026-04-25 22:07 49.00222 2.10465 4027 ft 231 kts 84°
2026-04-25 22:08 49.00346 2.12925 4010 ft 234 kts 84°
2026-04-25 22:08 49.00473 2.15386 3996 ft 232 kts 84°
2026-04-25 22:08 49.00602 2.17820 3990 ft 229 kts 84°
2026-04-25 22:08 49.00736 2.20229 3991 ft 227 kts 84°
2026-04-25 22:09 49.00865 2.22613 3992 ft 225 kts 84°
2026-04-25 22:09 49.00986 2.24896 3939 ft 213 kts 84°
2026-04-25 22:09 49.01107 2.27136 3646 ft 207 kts 84°
2026-04-25 22:09 49.01219 2.29233 3381 ft 191 kts 83°
2026-04-25 22:10 49.01326 2.31207 3157 ft 189 kts 83°
2026-04-25 22:10 49.01433 2.33208 2874 ft 187 kts 84°
2026-04-25 22:10 49.01537 2.35135 2639 ft 183 kts 84°
2026-04-25 22:10 49.01641 2.37039 2401 ft 174 kts 84°
2026-04-25 22:11 49.01734 2.38797 2158 ft 160 kts 84°
2026-04-25 22:11 49.01822 2.40432 1972 ft 153 kts 84°
2026-04-25 22:11 49.01910 2.42057 1762 ft 151 kts 83°
2026-04-25 22:11 49.01996 2.43614 1523 ft 145 kts 84°
2026-04-25 22:12 49.02075 2.45124 1342 ft 144 kts 84°
2026-04-25 22:12 49.02152 2.46628 1158 ft 145 kts 83°
2026-04-25 22:12 49.02241 2.48174 981 ft 148 kts 83°
2026-04-25 22:12 49.02300 2.49215 841 ft 150 kts 82°
2026-04-25 22:13 49.02411 2.51305 552 ft 146 kts 82°
2026-04-25 22:13 49.02493 2.52851 386 ft 146 kts 83°
2026-04-25 22:13 49.02572 2.54305 361 ft 120 kts 85°
2026-04-25 22:13 49.02623 2.55276 365 ft 63 kts 85°
2026-04-25 22:14 49.02643 2.55704 364 ft 25 kts 96°
2026-04-25 22:14 49.02587 2.55889 366 ft 15 kts 135°
2026-04-25 22:14 49.02517 2.55939 365 ft 8 kts 168°
2026-04-25 22:14 49.02488 2.55945 364 ft 4 kts 174°
2026-04-25 22:15 49.02461 2.55949 362 ft 4 kts 174°
2026-04-25 22:15 49.02432 2.55953 361 ft 5 kts 174°
2026-04-25 22:15 49.02382 2.55960 363 ft 11 kts 174°
2026-04-25 22:16 49.02221 2.55980 362 ft 12 kts 174°
2026-04-25 22:16 49.02153 2.55989 366 ft 7 kts 171°
2026-04-25 22:16 49.02113 2.56025 367 ft 6 kts 134°
2026-04-25 22:16 49.02100 2.56087 367 ft 6 kts 97°
2026-04-25 22:17 49.02098 2.56157 364 ft 7 kts 90°
2026-04-25 22:17 49.02095 2.56230 365 ft 7 kts 104°
2026-04-25 22:17 49.02067 2.56297 367 ft 9 kts 126°
2026-04-25 22:17 49.02032 2.56388 366 ft 10 kts 108°
2026-04-25 22:18 49.02028 2.56493 365 ft 10 kts 89°
2026-04-25 22:18 49.02031 2.56599 366 ft 10 kts 86°
2026-04-25 22:18 49.02037 2.56707 365 ft 10 kts 85°
2026-04-25 22:18 49.02042 2.56814 365 ft 10 kts 85°
2026-04-25 22:19 49.02050 2.56949 360 ft 17 kts 85°
2026-04-25 22:19 49.02057 2.57068 360 ft 17 kts 85°
2026-04-25 22:19 49.02068 2.57281 363 ft 14 kts 85°
2026-04-25 22:19 49.02076 2.57431 366 ft 14 kts 85°
2026-04-25 22:20 49.02084 2.57580 364 ft 14 kts 85°
2026-04-25 22:20 49.02088 2.57730 362 ft 14 kts 91°
2026-04-25 22:20 49.02064 2.57875 364 ft 15 kts 114°
2026-04-25 22:20 49.02004 2.58005 367 ft 15 kts 136°
2026-04-25 22:21 49.01916 2.58094 367 ft 16 kts 159°
2026-04-25 22:21 49.01791 2.58128 361 ft 21 kts 175°
2026-04-25 22:21 49.01640 2.58145 362 ft 22 kts 175°
2026-04-25 22:21 49.01488 2.58163 364 ft 22 kts 173°
2026-04-25 22:22 49.01336 2.58185 366 ft 22 kts 175°
2026-04-25 22:22 49.01191 2.58203 364 ft 19 kts 175°
2026-04-25 22:22 49.01059 2.58220 360 ft 19 kts 175°
2026-04-25 22:22 49.00962 2.58232 363 ft 13 kts 173°
2026-04-25 22:23 49.00881 2.58253 365 ft 10 kts 172°
2026-04-25 22:23 49.00832 2.58314 363 ft 10 kts 108°
2026-04-25 22:23 49.00833 2.58419 360 ft 10 kts 82°
2026-04-25 22:23 49.00841 2.58525 365 ft 10 kts 84°
2026-04-25 22:24 49.00848 2.58656 363 ft 15 kts 85°
2026-04-25 22:24 49.00851 2.58741 366 ft 1 kts 96°
2026-04-25 22:24 49.00850 2.58750 365 ft 0 kts 99°
2026-04-25 22:24 49.00848 2.58760 365 ft 1 kts 105°
2026-04-25 22:25 49.00840 2.58779 364 ft 3 kts 125°
2026-04-25 22:25 49.00816 2.58804 364 ft 5 kts 157°
2026-04-25 22:25 49.00776 2.58820 367 ft 7 kts 144°
2026-04-25 22:25 49.00767 2.58866 366 ft 7 kts 93°
2026-04-25 22:26 49.00769 2.58905 364 ft 0 kts 85°
2026-04-25 22:26 49.00770 2.58932 361 ft 1 kts 86°
2026-04-25 22:26 49.00771 2.58951 361 ft 2 kts 86°
2026-04-25 22:26 49.00771 2.58956 360 ft 0 kts 86°